[{"header": {"dx": 0.06612293990616946, "dy": 0.0552356325346848, "nx": 98, "ny": 59, "la1": 35.046912555036876, "la2": 31.78801023549047, "lo1": -121.43107172385933, "lo2": -114.95102361305473, "refTime": "2026041620", "parameterCategory": 1, "parameterNumber": 2}, "data": [10.13, 9.84, 10.13, 10.13, 10.13, 10.72, 10.4, 10.94, 11.23, 11.35, 11.62, 11.22, 12.15, 11.11, 10.45, 9.8, 9.34, 7.54, 6.51, 2.4, 0.0, -1.84, -2.2, -2.0, -2.0, -2.2, -2.95, -3.79, -3.79, -3.22, -2.95, -2.2, -1.08, 0.0, 1.19, 3.22, 3.63, 4.43, 4.89, 6.0, 6.4, 8.48, 10.05, 11.44, 14.44, 17.13, 16.71, 12.8, 10.89, 10.89, 11.95, 12.49, 13.38, 13.41, 13.86, 14.28, 14.28, 14.66, 14.66, 14.22, 14.09, 13.49, 13.01, 12.72, 12.45, 12.98, 12.98, 12.98, 12.98, 13.23, 12.3, 11.37, 11.37, 11.27, 10.85, 10.85, 10.68, 9.89, 9.97, 9.24, 8.49, 7.15, 6.17, 4.4, 2.53, 1.26, 3.13, 4.92, 6.17, 6.17, 5.6, 4.19, 2.54, 1.75, 2.7, 3.63, 3.8, 1.75, 10.13, 10.13, 9.84, 9.84, 10.13, 10.43, 10.72, 11.28, 10.94, 11.23, 10.8, 12.03, 11.02, 10.68, 11.03, 10.41, 8.77, 9.29, 7.45, 4.29, 0.0, 0.0, -1.98, -1.98, -2.2, -3.48, -3.48, -2.95, -3.22, -2.76, -1.99, -1.05, 0.0, 0.0, 0.96, 2.8, 3.72, 3.72, 3.72, 5.49, 6.55, 8.93, 10.24, 11.66, 14.85, 15.9, 13.49, 10.6, 10.25, 10.6, 11.51, 11.96, 12.94, 12.5, 13.41, 13.86, 14.28, 14.73, 14.66, 14.66, 14.09, 13.49, 13.01, 12.8, 13.23, 13.23, 13.65, 13.72, 13.29, 13.23, 12.8, 12.09, 11.61, 11.18, 11.11, 10.68, 10.89, 9.89, 9.97, 9.24, 8.49, 7.15, 6.17, 4.4, 2.53, 1.26, 3.13, 4.92, 6.17, 6.17, 5.6, 4.19, 2.54, 1.75, 2.7, 3.63, 3.8, 1.75, 10.13, 10.13, 10.13, 9.84, 9.84, 10.13, 10.43, 10.72, 11.28, 11.23, 11.16, 9.86, 11.04, 10.04, 9.74, 9.66, 9.49, 9.06, 8.48, 6.08, 2.4, 0.0, 0.0, -1.52, -3.72, -2.95, -2.95, -2.2, -2.2, -1.99, -1.05, -0.96, 0.0, 0.0, 1.98, 2.99, 2.82, 3.4, 3.6, 4.68, 7.02, 9.3, 11.66, 12.89, 13.83, 13.49, 11.96, 11.14, 11.14, 11.59, 12.04, 12.49, 12.52, 12.96, 12.96, 13.83, 14.28, 14.66, 14.66, 14.55, 14.11, 13.92, 13.49, 13.23, 13.23, 13.72, 13.72, 13.72, 13.92, 13.49, 13.01, 12.27, 11.8, 11.05, 11.05, 10.6, 10.6, 10.41, 9.26, 8.9, 8.05, 6.71, 5.73, 3.72, 0.99, 0.0, 2.21, 5.26, 5.81, 5.51, 4.43, 2.67, 1.75, 1.75, 2.83, 4.5, 3.77, 0.94, 9.84, 9.84, 10.13, 10.13, 9.84, 9.84, 10.43, 10.43, 10.99, 10.94, 10.88, 10.01, 11.03, 10.23, 9.6, 9.36, 8.95, 9.13, 9.24, 7.76, 4.74, 3.0, 0.0, -0.96, -1.99, -3.72, -2.4, -2.2, -1.19, 0.0, 0.0, 0.0, 0.0, 1.73, 2.82, 2.99, 4.37, 4.0, 4.2, 5.29, 7.36, 9.89, 11.28, 12.23, 12.04, 12.27, 11.59, 11.59, 12.07, 12.52, 12.52, 13.41, 13.41, 13.41, 13.83, 14.28, 14.73, 15.12, 15.12, 15.11, 14.55, 14.09, 13.49, 13.49, 13.92, 13.92, 14.36, 13.83, 14.27, 13.83, 13.49, 12.27, 11.05, 9.81, 9.81, 10.28, 9.83, 9.35, 9.24, 8.44, 7.11, 6.71, 5.7, 3.72, 1.27, 2.48, 4.4, 5.26, 5.7, 4.89, 2.82, 1.75, 1.67, 2.69, 3.8, 4.68, 3.55, 0.94, 9.84, 9.84, 9.84, 10.13, 10.13, 10.13, 10.45, 10.75, 11.33, 10.99, 10.94, 10.06, 10.63, 10.18, 9.42, 9.03, 8.63, 8.43, 9.03, 8.43, 7.33, 3.4, 1.63, 0.0, -1.05, -1.98, -1.52, 0.0, 0.0, 0.0, 0.96, 1.84, 2.12, 3.0, 2.99, 2.82, 3.4, 5.31, 4.92, 5.72, 7.51, 8.93, 10.04, 10.96, 11.61, 11.84, 12.41, 12.41, 12.86, 13.31, 13.32, 13.83, 13.83, 14.3, 14.3, 14.75, 15.2, 15.65, 15.62, 15.18, 14.28, 13.76, 13.65, 13.49, 13.92, 13.92, 13.92, 13.72, 13.91, 13.91, 13.23, 12.53, 10.32, 9.68, 8.94, 8.49, 8.94, 8.49, 7.54, 7.11, 6.21, 6.17, 5.26, 4.02, 2.84, 4.24, 5.36, 5.4, 4.43, 2.82, 2.54, 1.84, 1.84, 3.6, 4.68, 4.87, 3.0, -0.0, 10.13, 9.84, 9.49, 9.49, 9.84, 10.13, 10.13, 10.75, 11.03, 11.33, 10.94, 9.77, 10.24, 10.18, 9.81, 9.42, 9.03, 8.82, 8.42, 8.79, 7.4, 4.68, 1.49, 0.0, 0.0, 0.0, 0.0, 0.0, 0.0, 0.0, 0.96, 2.8, 5.06, 6.55, 5.46, 3.79, 2.95, 3.16, 2.64, 2.59, 4.25, 7.59, 8.43, 9.9, 11.11, 11.61, 12.04, 12.09, 12.53, 12.74, 13.18, 13.31, 13.31, 13.76, 14.28, 14.73, 14.75, 14.75, 15.2, 14.73, 13.83, 12.86, 13.01, 13.44, 13.92, 14.15, 13.23, 12.45, 12.7, 13.11, 12.7, 11.92, 10.85, 9.92, 8.9, 7.6, 7.15, 6.64, 6.36, 5.94, 3.79, 2.16, 1.98, 1.05, 1.8, 3.72, 3.79, 4.19, 2.82, 1.84, 1.75, 1.75, 2.83, 4.42, 5.37, 5.06, 1.84, -0.0, 10.13, 9.84, 9.49, 9.49, 9.49, 10.13, 10.13, 10.45, 10.75, 11.03, 10.72, 9.77, 10.24, 10.04, 10.55, 9.42, 9.6, 9.2, 8.67, 9.27, 9.27, 7.81, 4.74, 2.4, 2.4, 2.4, 3.48, 2.2, 0.0, 0.0, 0.0, 1.98, 5.49, 7.6, 7.35, 6.16, 4.4, 3.13, -4.47, -1.19, 1.63, 4.29, 6.9, 8.82, 9.29, 8.9, 9.83, 10.25, 10.25, 11.12, 11.57, 11.14, 12.04, 12.49, 12.94, 13.41, 13.41, 13.41, 13.86, 13.83, 12.85, 12.27, 12.74, 13.01, 13.23, 12.98, 12.15, 11.6, 11.6, 12.45, 12.45, 11.5, 10.95, 10.68, 9.06, 7.81, 6.36, 5.94, 4.98, 1.19, -0.0, -0.94, -0.0, -0.0, -0.0, 0.82, 1.84, 2.82, 1.96, 1.84, 1.55, 2.51, 3.77, 5.49, 5.49, 4.19, 0.95, -0.0, 9.77, 9.49, 9.49, 9.49, 9.49, 9.49, 10.13, 10.45, 10.76, 11.06, 10.43, 9.19, 9.92, 9.69, 10.41, 9.27, 9.84, 10.55, 9.45, 10.0, 10.0, 10.01, 9.49, 7.54, 5.73, 6.07, 5.94, 5.94, 4.92, 1.98, 0.0, 1.58, 4.14, 7.28, 6.7, 6.98, 5.75, 1.13, -3.47, -2.0, 3.13, 4.92, 6.07, 7.06, 7.28, 8.8, 8.4, 9.24, 9.06, 9.97, 9.24, 10.14, 11.14, 11.59, 12.07, 12.07, 12.52, 12.96, 12.52, 12.49, 11.95, 11.51, 11.8, 11.27, 10.63, 11.04, 11.64, 11.5, 11.37, 12.04, 12.09, 12.24, 11.95, 11.14, 9.35, 7.21, 6.57, 5.94, 4.8, -0.0, -3.63, -3.2, -1.63, -0.0, -0.0, -0.0, 0.89, 1.84, 0.95, 0.95, 1.72, 2.29, 4.74, 5.49, 5.24, 2.8, -0.0, -0.0, 9.77, 9.49, 9.49, 9.49, 9.49, 9.49, 9.84, 10.47, 10.47, 10.76, 10.43, 8.87, 9.8, 8.85, 8.97, 9.08, 9.76, 9.67, 10.04, 9.16, 9.09, 10.0, 9.42, 8.05, 5.49, 5.69, 5.37, 5.69, 6.8, 6.51, 1.98, 2.2, 4.47, 5.81, 5.73, 7.15, 7.15, 3.2, -0.0, 1.63, 1.52, 4.74, 5.37, 6.01, 6.64, 7.06, 9.09, 9.46, 9.42, 9.42, 11.03, 9.97, 11.05, 11.15, 11.62, 12.07, 12.07, 12.07, 12.07, 11.62, 11.18, 10.14, 8.4, 7.68, 8.64, 10.41, 11.6, 11.79, 11.36, 11.59, 12.52, 12.07, 12.49, 10.7, 8.94, 7.54, 6.64, 5.94, 3.48, -0.0, -1.99, -4.43, -3.35, -1.55, -0.0, -0.0, 0.81, 1.05, 0.88, 0.88, 1.7, 2.76, 4.11, 4.74, 4.19, 1.98, -0.0, -0.0, 9.49, 9.49, 9.49, 9.22, 9.22, 9.49, 10.13, 10.77, 10.77, 10.76, 9.84, 9.5, 8.87, 8.53, 9.17, 8.22, 8.22, 8.22, 9.16, 7.9, 7.27, 6.95, 6.9, 5.09, 1.63, 3.2, 3.2, 4.29, 5.72, 6.51, 4.4, -0.0, 1.4, 3.4, 5.69, 7.47, 6.9, 3.6, 4.0, 4.37, 4.58, 5.15, 5.15, 5.49, 6.18, 6.79, 7.81, 8.43, 9.42, 10.0, 10.18, 10.41, 10.6, 10.73, 11.18, 11.18, 11.59, 11.05, 11.05, 10.14, 8.0, 5.24, 4.8, 6.0, 8.22, 10.04, 11.92, 11.52, 11.6, 12.49, 12.71, 12.01, 11.52, 9.83, 7.89, 6.21, 5.81, 3.72, -0.0, -0.0, -0.0, -0.88, -3.58, -3.6, -1.98, -0.99, -0.0, -0.0, -0.0, 0.98, 2.0, 1.83, 2.99, 3.91, 3.0, 0.95, -0.0, -0.0, 9.49, 9.49, 9.49, 8.85, 9.49, 9.48, 10.13, 10.47, 10.77, 10.47, 10.13, 9.84, 10.13, 10.09, 11.34, 8.93, 8.35, 5.59, 5.49, 6.1, 8.43, 7.58, 4.4, -0.0, -0.0, -0.0, 1.52, 1.52, 3.0, 5.06, 3.4, 2.99, 2.82, 5.06, 5.49, 6.9, 6.32, 6.3, 5.36, 6.32, 6.11, 6.21, 5.58, 5.72, 5.69, 5.37, 6.45, 7.58, 8.21, 8.4, 8.8, 9.36, 9.13, 8.72, 8.56, 8.77, 9.35, 9.24, 8.17, 5.36, 1.84, 2.51, 4.33, 5.72, 7.64, 8.93, 10.66, 11.37, 11.62, 12.09, 12.15, 11.04, 9.84, 8.0, 6.28, 4.57, 2.68, -0.0, -1.99, -0.96, -0.0, -0.0, -0.87, -4.02, -3.58, -3.13, -2.4, -1.9, -0.0, -0.0, -0.0, 1.19, 1.99, 2.99, 1.98, 0.89, -0.0, -0.0, 9.49, 9.49, 9.12, 9.12, 9.21, 9.48, 10.13, 10.47, 10.77, 10.13, 10.13, 10.13, 10.45, 11.03, 11.72, 10.83, 9.71, 8.79, 8.06, 8.79, 9.32, 9.39, 6.61, 6.52, 1.41, -0.0, -0.0, -0.0, -0.0, 1.84, 3.2, 4.87, 4.87, 5.84, 6.18, 6.11, 6.39, 6.73, 7.15, 7.82, 7.2, 6.21, 4.74, 4.56, 2.82, 3.97, 6.01, 6.01, 6.98, 6.98, 6.32, 6.18, 5.89, 5.1, 4.68, 5.24, 6.45, 6.26, 2.48, -1.84, -0.0, 2.47, 3.34, 4.21, 5.8, 7.63, 8.3, 9.4, 9.49, 9.68, 8.32, 6.95, 5.3, 4.74, 3.48, 0.0, -3.82, -4.29, -2.68, -0.0, 1.08, -0.0, -0.0, -3.82, -4.02, -4.38, -3.58, -2.68, -2.68, -2.8, -1.4, -0.0, 0.98, 1.99, 1.84, 0.96, -0.0, -0.0, 8.83, 9.12, 9.12, 9.21, 9.48, 10.13, 10.13, 10.13, 10.13, 10.13, 10.13, 10.13, 10.45, 11.06, 11.92, 12.7, 13.02, 12.35, 11.74, 11.49, 11.61, 11.62, 11.11, 8.42, 4.66, 1.58, -0.0, -0.0, -0.0, -0.0, 3.16, 4.29, 5.37, 5.37, 6.11, 6.45, 6.39, 7.15, 7.76, 8.06, 7.12, 5.58, 2.99, 1.84, 1.63, 3.2, 3.4, 4.83, 4.37, 4.37, 4.03, 4.03, 2.51, 1.55, 1.32, 2.46, 4.4, 6.94, 0.0, -3.65, -0.81, 1.61, 2.45, 2.62, 3.34, 4.98, 5.48, 6.08, 5.76, 4.74, 1.6, -1.03, -0.96, 0.0, -1.41, -4.47, -5.26, -4.82, -2.97, -0.0, -0.0, -0.0, -0.88, -0.0, -1.6, -4.47, -5.26, -3.9, -3.58, -3.58, -3.58, -1.9, -0.0, -0.0, 1.05, 1.05, -0.0, -0.0, 8.83, 8.83, 8.83, 9.21, 9.48, 10.13, 10.13, 9.84, 10.13, 10.13, 10.13, 10.47, 10.76, 10.76, 11.63, 12.65, 13.62, 14.03, 13.99, 13.41, 13.21, 12.47, 12.07, 10.28, 7.6, 3.99, 1.7, 0.63, -0.0, 0.45, 1.7, 3.79, 5.37, 5.37, 5.69, 5.69, 6.06, 7.2, 8.06, 7.12, 5.21, 2.76, 1.3, 1.41, 1.41, 1.63, 1.98, 3.4, 2.82, 2.82, 2.66, 3.0, 1.32, -0.0, 1.4, 1.52, 5.1, 8.48, 6.8, -0.0, -0.83, 1.29, 1.29, 1.29, 1.64, 2.61, 2.95, 3.25, 5.32, 4.5, -0.0, -5.58, -4.89, -4.11, -4.8, -4.92, -4.47, -4.02, -2.68, 1.79, -0.0, -0.0, -1.98, -0.99, -0.0, -1.6, -4.47, -4.77, -4.02, -4.47, -4.02, -3.47, -2.21, -0.0, -0.0, -0.0, -0.0, -0.0, 8.83, 8.83, 9.21, 9.48, 9.48, 9.48, 9.48, 9.48, 10.13, 10.13, 10.13, 10.47, 10.47, 10.76, 11.06, 12.22, 13.21, 13.76, 13.82, 13.81, 13.73, 13.1, 12.39, 11.12, 9.37, 6.68, 4.02, 2.68, 1.7, 1.7, 2.24, 2.91, 5.72, 5.69, 5.03, 4.96, 6.95, 7.2, 8.06, 4.29, 1.99, 1.52, 1.41, 1.41, 1.52, 1.52, 1.4, 1.4, 1.32, 1.63, 1.52, 1.41, 1.41, 1.84, 1.98, 3.72, 6.08, 6.94, 7.68, 3.68, -0.0, -0.0, 1.39, 1.28, 1.33, 1.33, 2.82, 4.4, 6.64, 8.18, 4.02, -3.22, -5.58, -5.4, -4.92, -2.53, -0.0, -0.0, 1.6, 3.35, 3.72, 2.21, -1.79, -2.68, -2.8, -0.0, -1.6, -3.58, -3.58, -4.47, -5.36, -4.47, -3.13, -2.24, -1.9, -0.0, -0.0, -0.0, 8.83, 8.83, 9.21, 9.48, 9.48, 9.48, 9.48, 9.48, 9.48, 10.13, 10.13, 10.47, 10.47, 10.76, 11.06, 11.96, 12.73, 13.48, 13.62, 13.82, 13.74, 13.26, 12.46, 11.4, 10.14, 8.86, 6.61, 4.89, 4.02, 3.53, 3.53, 3.98, 4.34, 6.08, 4.37, 3.91, 5.36, 5.69, 4.74, 1.41, -0.0, 0.89, 1.4, 1.49, 1.4, 1.4, 1.32, 1.63, 1.52, 1.52, 1.52, 1.84, 1.7, 3.79, 4.8, 5.94, 6.4, 6.44, 6.64, 4.88, 1.84, 1.4, 1.63, 1.4, 1.49, 1.58, 2.64, 6.32, 7.68, 8.91, 4.82, -2.53, -6.36, -4.77, -0.0, 2.67, 5.1, 6.01, 6.55, 6.6, 6.57, 5.73, 2.21, -3.2, -4.47, -3.82, -0.0, -1.27, -1.6, -2.53, -4.92, -3.58, -2.68, -2.8, -2.4, -0.99, -0.0, -0.0, 8.83, 8.83, 8.83, 9.48, 9.48, 9.48, 9.48, 9.48, 9.48, 9.84, 10.13, 10.47, 10.47, 10.47, 11.38, 11.67, 12.51, 13.01, 13.36, 13.48, 13.31, 12.83, 12.3, 11.71, 10.5, 9.68, 8.87, 7.97, 6.68, 5.81, 5.36, 4.92, 3.98, 5.72, 3.33, 3.27, 2.54, 2.99, 1.49, -0.0, -0.0, -0.0, -0.0, 0.89, 2.54, 2.99, 2.66, 1.52, -0.0, 1.52, 1.41, 3.22, 3.22, 4.11, 5.21, 5.6, 6.0, 5.72, 5.37, 5.37, 4.02, 2.98, 2.2, 3.48, 3.79, 2.48, 3.72, 6.08, 7.89, 8.49, 4.11, -3.93, -5.26, -0.0, 3.36, 6.7, 9.17, 10.01, 10.0, 9.36, 8.72, 7.85, 4.77, -1.2, -4.47, -4.77, -2.84, -1.08, -0.0, -3.16, -4.47, -4.02, -2.98, -2.23, -2.84, -1.98, -0.87, -0.87, 8.83, 8.83, 8.83, 9.21, 9.48, 9.48, 9.21, 9.21, 9.48, 9.84, 10.42, 10.77, 10.77, 10.77, 11.06, 11.63, 12.22, 12.73, 12.93, 13.09, 13.19, 12.62, 12.11, 11.13, 10.94, 10.14, 9.68, 8.67, 8.17, 6.94, 5.7, 4.47, 3.98, 3.35, 2.86, 1.84, -0.0, -0.0, -0.0, -0.0, -0.0, -0.0, -0.0, 1.58, 2.69, 5.31, 4.29, 1.52, -0.0, 1.41, 1.41, 3.47, 3.47, 4.43, 4.74, 4.74, 5.36, 5.72, 5.72, 6.4, 5.21, 4.11, 4.4, 4.92, 4.47, 3.13, 3.82, 6.51, 8.05, 9.83, 9.39, 6.0, 5.63, 7.24, 9.36, 10.92, 12.65, 12.62, 11.5, 9.9, 8.72, 7.63, 5.81, -3.35, -4.29, -4.29, -4.29, -2.2, -0.0, -0.0, -1.27, -3.48, -2.76, -0.88, -0.0, -0.0, -0.0, -0.0, 8.83, 8.83, 8.83, 9.21, 9.48, 9.21, 9.21, 9.21, 9.48, 9.84, 10.13, 10.77, 10.77, 10.77, 10.47, 12.64, 11.36, 12.51, 12.73, 12.7, 13.31, 13.31, 12.11, 12.45, 10.85, 11.03, 6.8, 8.8, 7.76, 3.7, 2.97, 3.13, 3.07, 3.07, 2.23, 1.11, -0.0, -0.0, -0.0, -0.0, -0.0, -0.0, -0.0, 2.54, 4.0, 5.31, 4.29, -0.0, -0.0, -0.0, 1.63, 3.0, 3.0, 3.0, 4.02, 4.29, 5.72, 6.08, 6.52, 6.64, 6.07, 5.09, 5.36, 4.02, 3.39, 3.39, 4.34, 5.81, 8.49, 12.07, 14.31, 15.35, 16.48, 16.1, 15.35, 14.84, 14.4, 13.65, 12.71, 10.89, 7.85, 6.17, 3.2, -1.8, -3.49, -4.11, -4.98, -4.22, -1.08, -0.0, -0.0, -1.03, -1.84, -0.78, -0.0, 0.96, -0.0, -0.0, 8.43, 8.83, 8.83, 9.21, 9.21, 9.21, 9.21, 9.21, 9.48, 9.84, 10.13, 10.47, 10.77, 10.77, 10.77, 11.36, 11.36, 11.03, 12.5, 12.62, 13.87, 12.42, 11.88, 12.27, 10.66, 8.42, 7.15, 3.16, 1.26, 0.45, 0.89, 1.79, 2.6, 2.4, 1.61, 1.16, -0.0, -0.0, -0.0, -0.0, -0.0, -0.0, 0.54, 1.65, 2.96, 5.31, 1.4, -0.0, -0.0, -0.0, 1.32, 1.32, 1.49, 2.66, 3.0, 3.97, 5.69, 5.82, 6.99, 7.45, 5.81, 5.36, 4.92, 2.2, 2.0, 3.22, 4.6, 6.45, 8.44, 10.6, 13.23, 16.46, 18.06, 18.17, 17.36, 15.65, 14.21, 12.86, 10.73, 9.35, 8.0, 7.08, 4.4, -0.0, -2.73, -3.16, -4.0, -4.57, -3.16, -0.88, -0.0, -0.0, -0.95, -0.0, -0.0, 1.03, 1.03, 1.03, 8.43, 8.83, 8.83, 8.83, 9.21, 9.21, 9.21, 9.48, 9.48, 9.84, 10.13, 10.47, 10.47, 10.77, 10.77, 11.38, 11.63, 11.03, 10.4, 11.47, 11.87, 10.51, 10.23, 10.23, 9.86, 8.55, 6.03, 3.14, 0.63, -0.0, 0.63, 1.7, 2.17, 2.0, 1.9, 1.2, 0.53, -0.0, -0.0, -0.0, -0.0, -0.0, -0.0, -0.0, 1.16, 1.26, -0.0, -1.32, -0.0, -0.0, 1.2, 1.4, 1.4, 1.32, 2.54, 3.55, 4.68, 5.77, 8.06, 6.71, 5.36, 4.47, 2.0, 1.52, 1.98, 3.47, 4.74, 6.6, 8.06, 9.49, 11.37, 13.91, 15.91, 15.2, 12.86, 10.89, 8.67, 9.49, 9.35, 8.94, 8.44, 7.54, 6.88, 4.22, 2.48, -0.0, -0.0, -1.66, -4.19, -3.48, -1.99, -1.03, -0.96, -0.0, -0.0, 0.81, 0.76, 0.76, 8.43, 8.83, 8.83, 8.83, 8.83, 9.21, 9.21, 9.48, 9.48, 9.84, 10.13, 10.47, 10.47, 10.77, 10.77, 11.39, 11.67, 11.36, 11.36, 11.33, 10.65, 9.59, 8.78, 9.08, 9.66, 10.13, 9.2, 7.01, 4.34, 2.68, 2.24, 2.24, 2.24, 2.17, 1.86, 1.24, 0.65, -0.0, -0.0, -0.59, -0.63, -1.07, -1.14, -0.56, -0.0, 0.55, -0.0, -2.69, -1.26, -0.0, -0.0, 1.26, 1.2, 1.2, 2.69, 3.8, 4.5, 5.1, 6.08, 5.09, 2.68, -0.0, -0.0, 1.84, 2.8, 4.19, 4.74, 6.18, 6.82, 8.18, 9.46, 12.27, 8.8, 3.13, 0.0, 1.98, 3.48, 4.84, 6.02, 6.71, 7.54, 7.21, 7.12, 6.6, 4.74, 3.22, 1.98, -0.0, -1.6, -5.2, -4.6, -2.68, -0.98, -0.0, -0.0, -0.0, -0.0, -0.0, 8.43, 8.43, 8.43, 8.83, 8.83, 9.21, 9.48, 9.48, 9.48, 9.84, 10.13, 10.13, 10.47, 10.77, 10.77, 11.39, 11.7, 11.67, 11.36, 11.63, 11.52, 10.51, 9.3, 8.19, 8.5, 9.37, 10.02, 9.51, 8.0, 6.04, 4.44, 3.09, 2.68, 2.24, 1.7, 1.26, 0.71, 0.54, -0.0, -0.51, -1.23, -1.73, -1.7, -1.65, -1.73, -1.09, -1.4, -2.69, -1.26, -0.0, -0.0, -0.0, -0.0, 1.26, 1.26, 2.83, 2.83, 3.32, 4.14, 2.2, 0.98, 0.96, 0.88, 2.6, 3.91, 4.43, 4.74, 5.49, 6.55, 6.55, 7.68, 8.24, -4.92, -8.05, -6.71, -4.82, -2.6, 0.0, 2.97, 4.47, 5.59, 6.57, 6.6, 5.84, 5.37, 3.97, 2.12, 0.95, 1.01, -1.14, -5.29, -3.9, -2.4, -1.9, -0.98, -0.88, -0.0, -0.0, 8.43, 8.43, 8.43, 8.83, 8.83, 9.21, 9.48, 9.48, 9.48, 9.84, 10.13, 10.13, 10.47, 10.47, 10.77, 11.08, 11.39, 11.67, 11.67, 11.63, 11.58, 11.44, 10.41, 8.94, 8.15, 8.45, 9.3, 9.63, 9.2, 8.22, 6.3, 4.6, 3.39, 2.68, 1.79, 1.2, 1.26, 0.57, -0.0, -0.65, -1.6, -2.44, -2.84, -2.82, -2.8, -2.77, -2.69, -2.69, -1.26, -1.33, -0.0, -0.0, -0.0, -0.0, 1.33, 1.26, 0.85, 1.75, 2.97, 2.99, 2.12, 1.72, 2.8, 2.6, 3.91, 3.72, 4.29, 6.28, 6.18, 6.6, 6.57, 11.18, 5.81, -2.8, -6.26, -6.71, -5.81, -4.47, 3.58, 2.24, 4.34, 4.8, 4.84, 4.81, 5.06, 3.72, 3.0, 1.84, 1.96, 2.82, -4.77, -4.38, -2.97, -2.8, -1.7, -0.83, -0.0, -0.0, 8.43, 8.43, 8.43, 8.83, 8.83, 8.83, 9.48, 9.48, 9.48, 9.84, 10.13, 10.13, 10.47, 10.47, 10.77, 11.08, 11.39, 11.7, 11.67, 11.63, 11.63, 11.87, 11.16, 10.41, 8.73, 8.15, 8.73, 8.94, 9.48, 8.68, 7.6, 6.1, 4.6, 2.91, 2.24, 1.34, 1.2, 1.26, 0.8, -0.0, -0.53, -2.23, -3.48, -3.79, -3.83, -3.49, -2.82, -1.84, -1.8, -1.76, -1.18, -0.0, -0.0, -0.0, -0.0, -0.0, -0.0, -0.0, 1.33, 2.97, 4.6, 2.82, 2.64, 2.64, 2.82, 3.55, 4.42, 5.69, 6.55, 7.37, 9.39, 11.62, 14.75, 12.04, 9.35, 4.92, -1.79, -3.13, -3.58, 1.79, 2.8, 3.16, 3.48, 3.63, 3.72, 3.72, 3.0, 3.0, 3.2, 3.79, 4.87, -1.79, -2.24, -1.08, -0.0, -0.0, 0.8, 0.8, 8.43, 8.43, 8.43, 8.43, 8.83, 8.83, 8.83, 9.48, 9.48, 9.84, 10.13, 10.13, 10.47, 10.47, 10.47, 11.08, 11.08, 11.39, 11.67, 11.67, 11.63, 11.33, 11.28, 10.8, 9.86, 8.73, 8.15, 8.15, 8.65, 8.55, 7.9, 7.08, 5.6, 4.11, 2.63, 1.79, 1.34, 1.2, 1.6, 1.26, -0.0, -1.2, -2.84, -4.07, -4.41, -3.78, -2.84, -2.36, -1.8, -1.76, -2.26, -1.73, -1.22, -0.0, -0.0, -0.0, -0.0, -0.0, 1.22, 2.7, 4.2, 4.6, 2.82, 2.67, 2.83, 3.6, 5.1, 6.01, 7.6, 8.29, 8.94, 12.07, 12.52, 14.21, 14.09, 12.41, 8.05, 1.9, -3.13, -1.6, -1.27, -0.0, 0.96, 1.7, 2.6, 3.0, 3.97, 3.77, 4.87, 4.16, 4.68, 4.19, 2.68, 0.78, 0.73, 1.75, 2.23, 2.23, 8.18, 8.18, 8.18, 8.43, 8.83, 8.83, 8.83, 9.48, 9.48, 9.84, 10.13, 10.13, 10.13, 10.47, 10.47, 11.08, 11.08, 11.08, 11.38, 11.38, 11.36, 11.33, 10.99, 11.23, 10.59, 9.86, 8.73, 8.15, 8.15, 8.29, 8.0, 7.64, 7.23, 6.03, 4.55, 3.07, 2.17, 1.79, 1.79, 1.7, 1.86, 1.9, 1.24, -3.72, -4.93, -4.71, -3.47, -2.32, -2.32, -2.29, -2.26, -2.26, -1.73, -1.16, -0.89, -0.0, -0.0, -0.0, 0.89, 2.57, 4.4, 3.45, 2.97, 2.69, 3.87, 4.5, 5.36, 7.15, 8.17, 9.21, 9.79, 10.73, 12.07, 12.94, 13.18, 13.18, 10.28, 0.99, -4.92, -4.29, -4.11, -1.84, -0.0, 0.81, 1.7, 2.29, 3.55, 4.68, 5.69, 4.87, 4.56, 4.83, 4.68, 2.69, 2.44, 3.15, 3.15, 3.15, 8.18, 8.18, 8.18, 8.43, 8.83, 8.83, 8.83, 9.48, 9.48, 9.84, 10.13, 10.13, 10.13, 10.47, 10.47, 11.08, 11.08, 11.08, 11.38, 11.38, 11.36, 11.03, 10.99, 10.69, 10.65, 10.23, 9.3, 9.3, 8.38, 8.08, 7.73, 7.8, 7.72, 6.7, 5.75, 3.88, 2.68, 2.12, 1.79, 1.79, 1.26, 1.9, 2.21, 1.26, -2.4, -5.31, -5.01, -3.0, -2.32, -2.29, -1.63, -1.73, -1.73, -1.73, -1.16, -0.85, -0.0, -0.0, 0.85, 2.59, 2.57, 2.57, 2.7, 3.49, 4.56, 5.98, 7.06, 8.21, 8.99, 9.68, 10.28, 11.18, 11.59, 11.62, 12.52, 12.96, 10.28, 1.6, -6.17, -6.17, -5.6, -2.22, -0.51, -0.0, 0.88, 1.55, 3.22, 4.87, 5.69, 5.69, 4.68, 5.53, 5.36, 4.12, 3.8, 3.8, 3.8, 3.8, 8.18, 8.18, 8.18, 8.43, 8.83, 8.83, 8.83, 9.48, 9.48, 9.48, 9.84, 9.84, 10.13, 10.47, 10.47, 10.77, 11.08, 11.08, 11.38, 11.06, 11.36, 11.03, 10.72, 10.4, 10.36, 10.65, 10.59, 9.94, 9.3, 8.15, 8.08, 7.51, 7.44, 7.35, 6.15, 4.84, 3.35, 2.4, 1.7, 1.79, 1.6, 1.24, 1.61, 3.22, 1.19, -2.53, -4.71, -4.1, -2.8, -2.29, -2.29, -1.73, -1.73, -1.1, -1.63, -1.1, -1.33, -0.0, 0.85, 1.68, 1.68, 2.7, 3.49, 4.4, 5.46, 6.95, 7.68, 7.81, 8.56, 9.35, 10.28, 11.18, 11.59, 11.36, 12.27, 12.71, 11.62, 8.05, -2.21, -6.2, -6.17, -2.51, -1.16, -0.0, -0.0, 0.88, 1.83, 3.91, 4.58, 5.37, 5.24, 6.01, 6.32, 5.49, 5.49, 4.71, 4.71, 4.71, 7.76, 7.76, 8.18, 8.43, 8.43, 8.83, 8.83, 9.48, 9.48, 9.48, 9.48, 9.84, 10.13, 10.13, 10.47, 10.77, 11.08, 11.08, 11.38, 11.06, 11.06, 11.03, 10.43, 10.4, 10.09, 10.09, 10.06, 10.01, 9.37, 8.73, 8.08, 7.73, 7.51, 7.44, 6.79, 5.59, 4.29, 2.79, 2.4, 1.79, 1.79, 1.26, 1.2, 1.8, 2.2, -0.0, -3.55, -3.45, -2.8, -2.32, -1.8, -1.65, -1.1, -1.1, -1.1, -1.2, -1.2, -0.0, -0.0, 0.85, 1.68, 2.7, 4.2, 5.21, 6.48, 6.95, 6.83, 8.59, 7.6, 8.44, 8.94, 10.58, 11.95, 12.07, 11.96, 12.27, 12.04, 12.07, 10.28, 2.53, -5.26, -2.6, -2.15, -1.58, -0.54, -0.0, 0.98, 2.68, 4.11, 4.81, 5.46, 6.55, 7.07, 6.95, 5.94, 5.49, 4.71, 4.71, 7.76, 7.76, 8.18, 8.43, 8.43, 8.83, 8.83, 8.83, 9.48, 9.48, 9.48, 9.48, 9.84, 10.13, 10.47, 10.77, 10.77, 11.08, 11.06, 11.06, 11.06, 10.75, 10.43, 10.4, 10.12, 10.09, 10.06, 10.01, 9.94, 9.66, 8.94, 8.65, 8.08, 7.8, 7.44, 6.79, 5.49, 4.0, 3.07, 2.12, 1.79, 1.6, 1.24, 0.61, 0.57, -0.0, -2.64, -2.36, -2.16, -1.67, -1.67, -1.12, -1.12, -0.56, -0.61, -0.56, -0.56, -0.59, -0.0, 0.85, 1.68, 3.49, 5.06, 6.18, 6.18, 6.32, 5.89, 6.87, 7.9, 8.4, 7.2, 8.43, 11.02, 13.39, 13.31, 12.04, 10.89, 10.6, 12.04, 9.83, 1.58, -4.85, -3.13, -2.49, -2.0, -1.49, -0.0, 1.98, 4.22, 5.34, 5.75, 6.7, 7.47, 8.0, 7.02, 6.32, 5.21, 5.21, 7.76, 7.76, 8.18, 8.18, 8.43, 8.83, 8.83, 8.83, 9.21, 9.48, 9.48, 9.48, 9.84, 10.13, 10.47, 10.77, 10.77, 10.77, 11.06, 10.76, 10.76, 10.75, 10.75, 10.72, 10.12, 10.09, 9.77, 9.46, 10.58, 9.02, 9.37, 9.3, 8.65, 8.08, 7.44, 7.35, 6.51, 5.21, 3.64, 2.68, 2.12, 1.79, 1.26, 0.57, -0.0, -0.61, -1.11, -1.7, -2.36, -1.67, -1.14, -1.14, -0.57, -0.57, -0.0, -0.0, -0.0, -0.0, -0.0, -0.0, 1.68, 3.49, 5.76, 5.94, 6.64, 6.01, 5.24, 6.64, 7.56, 8.55, 7.06, 8.12, 10.61, 14.03, 15.31, 13.38, 9.79, 8.0, 8.94, 9.81, 6.98, 1.34, -4.85, -3.13, -2.68, -1.79, -0.89, 0.32, 4.82, 5.75, 6.26, 6.71, 7.45, 8.14, 7.67, 6.39, 5.3, 5.3, 7.76, 7.76, 8.18, 8.18, 8.43, 8.83, 8.83, 8.83, 9.21, 9.48, 9.48, 9.48, 9.84, 9.84, 9.84, 10.77, 10.77, 10.77, 10.76, 10.76, 10.76, 10.45, 10.75, 10.43, 10.12, 10.09, 9.48, 9.46, 9.42, 10.58, 8.5, 8.78, 8.73, 8.44, 7.73, 7.64, 7.35, 6.15, 4.84, 3.72, 2.4, 2.24, 1.79, 1.6, 0.6, -0.0, -0.53, -1.08, -1.84, -1.67, -1.14, -0.58, -0.57, -0.0, -0.0, -0.0, -0.0, -0.0, -0.0, 0.58, 1.16, 4.56, 5.98, 5.89, 5.89, 5.53, 5.24, 5.37, 7.33, 8.18, 8.18, 8.43, 9.75, 13.31, 16.82, 15.91, 11.8, 9.49, 9.11, 9.33, 9.6, 8.4, 4.47, -3.39, -3.09, -2.17, -1.2, 0.0, 4.92, 6.26, 6.26, 6.2, 6.71, 7.56, 7.71, 6.79, 5.37, 5.37, 7.76, 7.76, 8.18, 8.18, 8.18, 8.57, 8.83, 8.83, 8.83, 9.21, 9.48, 9.48, 9.48, 9.84, 10.13, 10.47, 10.47, 10.47, 10.76, 10.76, 10.76, 10.45, 10.43, 10.13, 10.12, 10.09, 9.48, 9.77, 10.06, 9.66, 8.78, 8.19, 8.19, 8.15, 8.08, 8.37, 8.0, 7.35, 6.41, 4.65, 3.6, 2.49, 2.24, 2.24, 2.12, 1.2, -0.0, -1.11, -1.7, -1.14, -0.58, -0.58, -0.0, -0.0, -0.0, -0.0, -0.0, -0.0, 0.54, 1.16, 2.49, 3.61, 5.1, 6.3, 5.36, 5.1, 5.53, 5.69, 6.98, 8.18, 7.81, 9.7, 10.91, 12.52, 15.18, 16.22, 14.64, 13.23, 11.95, 11.28, 10.49, 10.05, 9.26, 5.36, -2.53, -2.68, -1.24, 0.6, 4.92, 6.26, 5.73, 6.17, 6.2, 6.71, 6.65, 6.44, 4.65, 4.65, 7.76, 7.76, 8.18, 8.18, 8.18, 8.18, 8.57, 8.83, 8.83, 9.21, 9.21, 9.48, 9.48, 9.84, 10.13, 10.13, 10.47, 10.47, 10.76, 10.76, 10.45, 10.75, 10.43, 9.82, 10.12, 9.8, 9.77, 9.77, 9.77, 10.3, 9.94, 8.78, 7.86, 7.86, 8.15, 8.08, 8.37, 8.0, 7.23, 6.03, 4.55, 3.6, 3.09, 3.13, 2.68, 2.24, 0.6, -0.51, -1.19, -1.05, -0.58, -0.0, -0.0, -0.0, -0.0, -0.0, -0.0, -0.0, 1.16, 1.14, 1.69, 3.92, 5.1, 5.98, 6.3, 6.01, 5.53, 6.01, 6.45, 7.15, 7.69, 10.4, 11.87, 12.41, 13.76, 14.55, 15.13, 14.64, 14.09, 12.49, 10.73, 9.83, 9.39, 8.05, 2.4, -1.88, -0.54, 3.35, 5.36, 5.36, 5.36, 5.73, 5.73, 5.75, 5.75, 5.2, 4.74, 4.74, 7.76, 7.76, 8.18, 8.18, 8.18, 8.18, 8.57, 8.57, 8.83, 9.21, 9.21, 9.21, 9.49, 9.49, 10.13, 10.13, 10.47, 10.47, 10.76, 10.76, 10.45, 10.75, 10.43, 9.82, 10.12, 9.8, 9.8, 9.77, 9.77, 10.06, 10.01, 9.59, 8.73, 8.15, 8.15, 8.15, 8.08, 8.0, 7.9, 7.23, 6.28, 4.9, 4.34, 3.87, 3.82, 2.4, 1.34, -0.0, -0.55, -0.59, -0.0, -0.0, 0.57, 0.57, -0.0, -0.0, -0.0, 0.59, 1.09, 1.14, 1.78, 2.86, 5.98, 5.21, 5.76, 6.3, 6.01, 6.01, 6.01, 6.45, 7.9, 8.42, 12.87, 13.01, 13.31, 12.94, 13.32, 14.22, 14.28, 12.52, 10.63, 9.54, 8.19, 7.89, 6.21, 2.68, 2.48, 4.47, 4.82, 5.26, 5.36, 5.36, 5.36, 5.36, 4.82, 4.22, 4.43, 4.43, 7.76, 7.76, 7.76, 8.18, 8.18, 8.18, 8.85, 8.85, 8.85, 9.12, 9.49, 9.49, 9.49, 9.49, 10.13, 10.13, 10.13, 10.47, 10.76, 10.45, 10.45, 10.43, 10.43, 9.82, 10.12, 10.12, 9.8, 10.09, 9.77, 10.06, 10.01, 9.94, 9.86, 8.73, 8.15, 8.15, 8.08, 8.37, 8.27, 8.15, 7.48, 6.51, 5.57, 6.88, 4.11, 3.07, 1.7, 0.57, -0.0, -0.0, -0.0, 0.58, 0.58, 1.12, 0.56, 0.59, 0.56, 0.56, 1.16, 1.69, 1.69, 2.33, 5.1, 5.21, 6.04, 6.3, 5.53, 5.53, 6.01, 6.01, 6.73, 7.76, 11.33, 14.44, 13.44, 12.04, 12.07, 12.96, 13.41, 12.07, 10.62, 9.11, 8.3, 7.35, 6.79, 6.02, 4.47, 4.34, 4.4, 5.4, 5.73, 6.17, 5.81, 5.26, 4.98, 3.93, 3.48, 3.35, 7.76, 7.76, 7.76, 8.18, 8.18, 8.46, 8.46, 8.85, 8.85, 8.85, 9.49, 9.49, 9.49, 9.49, 9.49, 9.84, 10.13, 10.13, 10.45, 10.45, 10.75, 10.43, 10.43, 10.13, 9.82, 10.12, 9.8, 10.09, 9.77, 9.72, 9.72, 10.01, 9.94, 9.86, 8.73, 8.15, 8.08, 7.73, 8.0, 8.43, 8.15, 7.08, 6.51, 7.85, 5.24, 3.88, 2.68, 1.26, 0.55, 0.59, 1.16, 1.14, 1.67, 1.76, 1.18, 1.18, 1.18, 0.55, 1.16, 1.14, 1.69, 2.33, 4.8, 4.96, 5.36, 5.21, 5.46, 5.36, 5.89, 6.32, 6.32, 7.9, 11.03, 13.11, 14.58, 12.53, 11.15, 12.04, 11.53, 11.08, 10.18, 9.11, 7.89, 6.4, 5.34, 4.85, 4.47, 4.34, 4.98, 5.73, 6.2, 6.2, 6.17, 5.4, 4.98, 3.58, 3.16, 3.48, 7.53, 7.53, 7.53, 7.93, 8.2, 8.2, 8.2, 8.85, 8.85, 8.85, 9.22, 9.49, 9.49, 9.49, 9.49, 9.84, 9.84, 9.84, 10.13, 10.45, 10.45, 10.75, 10.43, 10.13, 9.82, 10.12, 9.8, 10.09, 9.77, 10.06, 9.72, 10.01, 10.01, 9.94, 9.5, 8.65, 8.08, 8.08, 8.37, 8.55, 8.43, 7.76, 6.8, 6.94, 8.44, 5.26, 3.87, 2.68, 2.2, 1.7, 1.7, 1.7, 1.67, 2.29, 2.26, 1.71, 1.71, 1.16, 1.14, 1.14, 1.69, 2.33, 2.75, 4.88, 5.21, 4.88, 5.36, 5.36, 5.89, 6.32, 6.73, 7.44, 10.0, 11.99, 13.9, 12.86, 11.37, 9.8, 8.45, 6.98, 6.65, 5.81, 4.92, 4.47, 4.47, 4.38, 4.57, 5.51, 6.2, 6.64, 6.64, 6.64, 6.2, 5.73, 5.26, 4.4, 3.35, 3.16, 7.53, 7.53, 7.53, 8.2, 8.2, 8.2, 8.2, 8.58, 8.85, 8.85, 8.85, 9.22, 9.49, 9.49, 9.49, 9.49, 9.49, 9.84, 10.13, 10.45, 10.45, 10.75, 10.43, 10.13, 10.12, 9.8, 9.8, 10.09, 10.09, 10.06, 10.06, 10.01, 9.66, 9.94, 9.86, 9.76, 9.21, 8.65, 8.29, 8.55, 8.43, 8.15, 7.48, 7.01, 6.94, 8.45, 4.92, 4.4, 3.79, 3.49, 2.84, 2.84, 2.36, 2.29, 2.26, 2.4, 2.23, 1.69, 1.14, 1.14, 1.69, 1.69, 3.77, 3.87, 3.87, 4.88, 5.36, 6.01, 6.32, 7.06, 7.81, 7.81, 9.45, 10.0, 11.72, 13.58, 12.27, 10.04, 7.76, 6.0, 5.21, 5.82, 5.46, 5.82, 6.07, 6.44, 6.94, 7.21, 7.37, 7.54, 7.1, 7.1, 6.64, 5.73, 5.26, 4.34, 3.72, 3.72, 7.53, 7.53, 7.53, 7.8, 8.2, 8.2, 8.2, 8.58, 8.58, 8.85, 8.85, 9.22, 9.22, 9.22, 9.22, 9.22, 9.5, 9.5, 10.13, 10.45, 10.45, 10.75, 10.43, 9.82, 10.12, 9.8, 9.8, 10.09, 10.09, 10.09, 10.06, 10.01, 9.66, 9.94, 9.86, 9.86, 9.76, 9.21, 8.65, 8.55, 8.27, 8.15, 8.0, 7.31, 7.26, 7.07, 6.68, 5.88, 5.08, 4.29, 4.07, 3.22, 2.82, 2.8, 2.96, 2.75, 2.37, 2.21, 1.69, 1.69, 1.69, 1.81, 2.23, 3.87, 3.7, 5.21, 6.01, 6.64, 6.32, 7.41, 7.81, 7.82, 9.45, 8.72, 10.0, 11.33, 12.86, 13.87, 12.62, 11.02, 9.52, 9.52, 9.84, 9.27, 9.2, 9.36, 9.24, 9.06, 8.33, 8.0, 7.55, 7.15, 6.65, 6.17, 3.72, 3.35, 3.35, 3.35, 7.8, 7.8, 7.8, 7.8, 8.2, 8.2, 8.2, 8.2, 8.58, 8.86, 9.14, 9.5, 9.5, 9.5, 9.5, 9.5, 9.5, 9.5, 10.13, 10.13, 10.45, 10.43, 10.13, 10.12, 9.8, 9.8, 10.09, 10.09, 10.09, 10.09, 10.06, 10.01, 9.66, 9.94, 9.94, 10.15, 10.41, 9.86, 9.21, 8.55, 8.27, 8.15, 8.0, 7.71, 7.51, 6.97, 7.15, 6.68, 5.99, 5.31, 4.29, 4.11, 3.49, 3.22, 2.77, 2.96, 2.73, 2.37, 1.69, 1.69, 2.21, 2.23, 2.23, 2.39, 3.7, 5.46, 6.95, 6.95, 6.73, 7.41, 7.44, 7.82, 7.82, 8.8, 9.24, 9.9, 12.45, 14.71, 15.19, 14.22, 13.19, 12.25, 11.6, 11.21, 10.75, 10.05, 9.7, 9.35, 8.9, 8.49, 7.6, 7.15, 6.64, 5.26, 4.0, 3.82, 3.82, 3.82, 7.55, 7.55, 7.55, 7.55, 8.2, 8.2, 8.2, 8.49, 8.86, 8.86, 8.86, 9.21, 9.5, 9.5, 9.5, 9.5, 9.5, 9.5, 9.84, 10.13, 10.13, 10.13, 10.12, 10.12, 9.8, 9.8, 10.09, 10.09, 10.09, 10.06, 10.06, 10.01, 10.01, 9.94, 10.3, 10.51, 10.15, 10.41, 9.76, 9.1, 8.43, 8.15, 8.0, 7.81, 7.51, 7.4, 7.13, 6.71, 6.16, 5.57, 5.08, 4.65, 4.12, 4.12, 3.45, 3.42, 3.4, 2.37, 2.21, 2.21, 2.37, 2.23, 2.23, 2.4, 5.1, 6.3, 6.64, 6.32, 7.06, 7.06, 8.18, 6.79, 7.82, 8.4, 8.8, 9.77, 11.27, 12.98, 14.05, 13.83, 13.83, 13.19, 12.92, 11.95, 10.96, 10.26, 9.39, 9.39, 8.49, 8.05, 8.05, 5.81, 5.26, 4.77, 4.34, 4.47, 4.47, 4.47, 7.55, 7.55, 7.55, 7.55, 7.55, 7.95, 8.22, 8.22, 8.86, 8.86, 8.86, 9.21, 9.21, 9.21, 9.21, 9.5, 9.5, 9.5, 9.84, 9.84, 10.13, 9.82, 10.12, 10.12, 9.8, 10.09, 10.09, 10.09, 9.77, 10.06, 10.06, 10.01, 10.23, 10.59, 10.59, 10.23, 10.51, 10.23, 9.76, 9.1, 8.82, 8.28, 8.0, 8.22, 8.0, 7.69, 7.51, 6.71, 6.23, 5.99, 5.31, 4.84, 4.71, 4.45, 3.85, 3.42, 3.4, 2.89, 2.21, 2.37, 2.23, 2.23, 2.23, 2.23, 3.6, 6.3, 6.64, 6.01, 6.01, 6.73, 7.15, 7.15, 7.44, 8.4, 8.8, 9.66, 11.11, 12.3, 12.45, 13.11, 13.75, 14.3, 14.15, 12.18, 11.52, 10.28, 9.81, 8.82, 8.29, 8.38, 6.71, 4.92, 4.92, 4.47, 4.47, 4.47, 4.47, 4.47, 7.55, 7.55, 7.55, 7.55, 7.55, 7.83, 8.22, 8.22, 8.59, 8.86, 8.86, 8.86, 9.21, 9.21, 9.21, 9.21, 9.5, 9.5, 9.5, 10.13, 9.82, 10.12, 10.12, 10.12, 9.8, 10.09, 10.09, 9.77, 10.06, 10.06, 10.06, 10.3, 10.3, 10.65, 10.59, 10.59, 10.3, 9.59, 9.3, 9.48, 8.96, 8.68, 8.51, 8.22, 8.0, 7.74, 7.51, 7.13, 6.71, 6.16, 5.99, 5.47, 4.94, 4.74, 4.1, 3.84, 3.4, 2.73, 2.37, 2.23, 2.92, 2.4, 2.4, 2.23, 3.37, 5.46, 4.96, 4.96, 6.64, 6.32, 6.73, 7.15, 8.21, 8.72, 9.24, 9.66, 10.6, 11.79, 11.92, 11.6, 13.11, 14.58, 14.42, 12.62, 11.6, 11.15, 10.05, 8.91, 8.17, 5.94, 5.26, 4.47, 4.47, 4.47, 4.47, 4.02, 4.02, 4.02, 7.55, 7.55, 7.55, 7.57, 7.57, 7.57, 8.22, 8.22, 8.59, 8.59, 8.59, 8.86, 9.21, 9.5, 9.5, 9.5, 9.5, 9.5, 9.5, 9.5, 9.5, 10.12, 10.12, 10.12, 10.09, 10.09, 9.77, 10.06, 10.06, 10.06, 10.3, 10.65, 10.88, 10.88, 10.65, 10.59, 10.01, 9.37, 9.21, 9.1, 9.35, 9.2, 8.91, 8.51, 8.42, 7.74, 7.4, 7.13, 6.71, 6.68, 6.04, 5.81, 5.21, 5.29, 4.75, 4.47, 4.08, 2.92, 2.23, 2.92, 2.92, 2.26, 2.26, 2.4, 2.73, 5.1, 4.88, 5.46, 6.01, 6.79, 7.15, 7.82, 8.58, 8.72, 9.13, 9.24, 9.77, 10.4, 11.02, 11.02, 12.15, 13.52, 13.64, 12.44, 11.6, 10.26, 8.91, 7.6, 4.81, 3.93, 4.24, 4.02, 4.47, 4.47, 4.47, 4.02, 4.02, 4.02, 7.16, 7.16, 7.57, 7.57, 7.57, 7.57, 7.96, 8.22, 8.22, 8.59, 8.87, 8.87, 8.87, 9.5, 9.5, 9.5, 9.5, 9.5, 9.5, 9.5, 9.5, 10.12, 10.12, 9.8, 10.09, 9.77, 9.77, 10.06, 10.06, 10.65, 10.36, 10.94, 10.94, 10.94, 10.65, 10.3, 9.66, 9.3, 9.21, 9.1, 9.1, 8.96, 8.8, 8.51, 8.3, 8.0, 7.87, 7.51, 7.15, 6.68, 6.6, 5.88, 5.6, 5.29, 4.45, 4.75, 3.84, 2.92, 2.75, 2.75, 2.96, 2.44, 2.29, 1.73, 2.26, 3.63, 4.2, 5.21, 6.18, 6.32, 7.15, 7.2, 8.17, 8.3, 8.72, 8.8, 8.82, 9.05, 10.04, 11.02, 11.5, 11.92, 12.56, 12.87, 9.58, 5.29, 2.98, 2.68, 2.68, 1.98, 2.21, 3.58, 4.02, 4.47, 4.47, 4.47, 4.47, 4.47, 7.16, 6.92, 7.32, 7.57, 7.57, 7.57, 7.96, 7.96, 8.51, 8.87, 8.87, 8.87, 8.87, 9.21, 9.21, 9.5, 9.5, 9.5, 9.21, 9.21, 9.21, 10.12, 10.12, 9.8, 10.09, 9.77, 9.77, 9.77, 10.36, 10.69, 10.69, 11.28, 11.28, 10.94, 10.65, 10.01, 9.37, 9.3, 9.01, 8.93, 9.1, 8.96, 9.2, 8.91, 8.72, 8.0, 7.74, 7.51, 7.13, 7.15, 6.61, 6.47, 6.1, 5.29, 5.01, 4.75, 4.1, 3.42, 2.96, 2.96, 2.77, 2.29, 2.29, 1.76, 1.76, 3.45, 4.34, 4.4, 5.06, 5.76, 6.18, 7.15, 7.2, 7.76, 7.82, 7.81, 8.43, 8.42, 9.42, 10.4, 10.96, 11.27, 11.79, 12.3, 8.48, -4.0, -2.68, 0.0, 1.2, 1.4, 1.4, 1.9, 2.68, 4.02, 4.92, 4.47, 4.47, 4.47, 6.92, 6.92, 7.32, 7.59, 7.59, 7.59, 7.85, 8.23, 8.23, 8.59, 8.59, 8.87, 8.87, 9.21, 9.21, 9.21, 9.21, 9.21, 9.21, 9.5, 9.5, 9.5, 9.8, 9.8, 10.09, 10.09, 10.09, 10.36, 10.69, 11.28, 10.99, 10.99, 11.28, 10.69, 10.3, 9.66, 9.37, 8.94, 9.01, 8.84, 9.1, 9.35, 8.96, 8.68, 8.72, 8.48, 8.17, 7.97, 7.58, 7.15, 7.13, 6.51, 6.3, 5.58, 5.29, 4.74, 4.1, 3.42, 2.77, 3.0, 3.0, 2.32, 2.32, 1.8, 1.8, 2.32, 2.83, 3.63, 4.2, 5.46, 6.04, 6.95, 6.73, 6.45, 7.2, 7.15, 7.76, 8.43, 9.36, 9.9, 10.85, 11.11, 11.61, 12.27, -0.0, -4.38, -3.13, 1.79, 1.9, 2.21, 1.2, 1.2, 2.53, 3.82, 4.24, 4.24, 4.24, 4.24, 7.19, 7.19, 7.59, 7.59, 7.59, 7.59, 7.59, 7.96, 8.23, 8.23, 8.59, 8.59, 8.87, 9.21, 9.21, 9.21, 9.21, 9.5, 9.5, 9.5, 9.5, 9.5, 9.8, 9.8, 9.8, 10.4, 10.4, 10.72, 10.99, 10.99, 10.99, 11.28, 10.69, 10.65, 10.01, 9.37, 9.02, 8.94, 9.21, 9.21, 9.1, 9.35, 8.96, 8.68, 8.51, 8.3, 8.17, 7.87, 7.58, 7.6, 7.15, 6.61, 6.47, 5.75, 5.29, 4.74, 4.12, 3.45, 3.45, 3.22, 2.8, 2.32, 2.36, 2.36, 1.84, 1.7, 1.73, 2.67, 4.5, 6.18, 6.18, 6.95, 6.95, 6.18, 6.01, 6.73, 7.81, 8.8, 9.24, 9.66, 10.18, 10.68, 11.18, 8.77, -0.0, -4.47, -3.13, 0.0, 1.9, 2.8, 2.68, 1.58, 2.21, 3.2, 3.6, 3.2, 3.2, 3.2, 6.94, 6.94, 7.59, 7.59, 7.59, 7.59, 7.59, 7.96, 7.96, 8.23, 8.59, 8.59, 8.59, 9.17, 9.5, 9.5, 9.5, 9.5, 9.5, 9.5, 9.5, 9.5, 9.8, 10.12, 10.4, 10.72, 10.72, 10.99, 10.99, 10.99, 10.99, 10.69, 10.65, 9.72, 9.42, 9.37, 9.3, 8.94, 9.21, 9.21, 9.48, 9.1, 8.96, 8.68, 8.51, 8.3, 8.17, 7.87, 7.97, 7.58, 7.15, 7.13, 6.3, 6.0, 5.58, 4.74, 4.12, 3.72, 3.47, 3.47, 2.82, 2.36, 2.36, 2.18, 2.18, 1.73, 1.23, 1.76, 4.42, 5.53, 6.32, 7.06, 7.06, 7.06, 7.06, 7.15, 7.44, 8.4, 9.13, 9.13, 9.24, 10.18, 11.61, 7.85, -2.24, -4.92, -3.39, -1.9, 0.0, 2.24, 2.24, 2.24, 3.13, 3.13, 3.13, 3.13, 3.13, 3.13, 7.33, 7.33, 7.33, 7.33, 7.33, 7.6, 7.6, 7.87, 8.24, 7.96, 8.59, 8.87, 8.87, 8.87, 9.19, 9.19, 9.19, 9.19, 9.19, 9.5, 9.5, 9.5, 9.8, 10.12, 10.43, 10.43, 11.33, 11.33, 10.99, 10.99, 10.69, 10.65, 9.72, 9.42, 9.37, 9.02, 9.3, 9.3, 9.58, 9.21, 9.48, 9.1, 8.96, 8.68, 8.51, 8.3, 8.0, 8.17, 7.97, 7.58, 7.15, 7.13, 6.47, 5.81, 5.37, 4.71, 3.84, 3.47, 3.47, 3.49, 3.08, 2.84, 2.4, 2.4, 2.2, 2.2, 1.76, 1.11, 3.55, 5.69, 7.15, 7.15, 6.73, 7.06, 7.15, 7.82, 7.82, 8.72, 8.72, 8.72, 8.72, 8.95, 11.27, 8.06, -2.21, -5.81, -4.02, -3.13, -1.58, 1.79, 1.79, 2.24, 3.13, 3.13, 2.68, 2.24, 2.24, 2.24, 7.33, 7.33, 7.6, 7.6, 7.6, 7.6, 7.6, 7.6, 8.24, 8.24, 8.87, 8.87, 8.87, 8.87, 8.87, 9.19, 9.19, 9.19, 9.19, 9.5, 9.5, 9.8, 10.12, 10.43, 10.75, 10.75, 11.03, 10.99, 10.99, 10.69, 10.65, 10.06, 9.66, 9.37, 9.02, 9.02, 9.3, 9.3, 9.58, 9.76, 9.48, 9.1, 8.82, 8.68, 8.51, 8.3, 8.42, 8.17, 7.87, 7.58, 7.15, 7.15, 6.47, 5.88, 5.6, 4.71, 4.12, 3.83, 3.83, 3.49, 3.22, 2.84, 2.4, 2.2, 2.44, 2.86, 1.76, 1.23, 2.2, 5.69, 6.45, 6.32, 6.32, 7.15, 7.44, 7.82, 8.06, 8.48, 8.56, 8.72, 8.72, 9.66, 10.68, 9.49, 2.21, -5.7, -4.02, -2.68, -2.4, -1.58, 1.34, 1.79, 2.24, 3.13, 2.68, 2.68, 2.68, 2.68, 7.22, 7.22, 7.6, 7.6, 7.6, 7.6, 7.6, 7.6, 8.24, 8.24, 8.24, 8.58, 8.87, 8.87, 8.87, 8.87, 9.19, 9.19, 9.19, 9.5, 9.8, 10.12, 10.12, 10.43, 10.75, 10.75, 11.03, 10.72, 10.69, 10.36, 10.06, 10.01, 9.42, 9.37, 9.02, 9.3, 9.3, 9.3, 9.5, 9.76, 9.48, 9.1, 8.82, 8.68, 8.51, 8.3, 8.42, 8.17, 7.87, 7.52, 7.58, 6.68, 6.6, 6.04, 5.6, 4.37, 4.11, 4.11, 4.11, 3.49, 3.49, 2.86, 2.86, 2.86, 2.86, 2.86, 2.22, 1.76, 2.44, 4.58, 5.24, 5.53, 6.32, 6.73, 7.15, 7.58, 7.6, 8.06, 8.06, 7.76, 8.72, 9.24, 10.41, 11.05, 6.71, -3.35, -4.85, -3.39, -2.21, -1.2, 0.0, 0.0, 2.4, 3.13, 2.68, 2.68, 2.68, 2.68, 6.96, 6.96, 6.96, 7.33, 7.6, 7.6, 7.6, 7.6, 7.96, 7.96, 8.24, 8.58, 8.58, 8.58, 8.58, 8.87, 9.19, 9.19, 9.5, 9.8, 10.12, 10.12, 10.13, 10.43, 10.43, 10.75, 10.72, 10.72, 10.36, 10.06, 9.72, 9.66, 9.37, 9.37, 9.02, 9.3, 9.3, 9.3, 9.5, 9.76, 9.48, 9.1, 8.82, 8.68, 8.51, 8.72, 8.48, 8.17, 7.87, 7.52, 7.58, 6.71, 6.68, 6.16, 5.31, 4.65, 3.79, 4.07, 4.07, 4.07, 3.48, 3.15, 3.15, 2.86, 2.86, 2.86, 2.48, 1.76, 1.76, 3.0, 3.77, 5.24, 6.01, 6.32, 7.15, 7.15, 7.2, 7.2, 7.53, 7.76, 8.56, 9.49, 10.6, 12.04, 10.73, 3.72, -3.93, -3.58, -2.53, -1.13, 0.0, 0.0, 2.21, 3.2, 2.53, 2.21, 2.21, 2.21, 6.96, 6.96, 6.96, 7.33, 7.33, 7.33, 7.33, 7.89, 8.24, 8.24, 8.24, 8.56, 8.87, 8.87, 8.87, 8.87, 9.19, 9.5, 9.5, 10.12, 10.12, 9.82, 10.43, 10.43, 10.43, 10.43, 10.72, 10.4, 10.36, 10.06, 9.72, 9.66, 9.37, 9.37, 9.3, 9.3, 9.3, 9.3, 9.5, 9.58, 9.48, 9.1, 8.82, 8.68, 8.51, 8.51, 8.3, 8.0, 7.74, 7.97, 7.58, 6.71, 6.68, 6.16, 5.31, 4.55, 4.07, 4.07, 4.55, 4.37, 3.78, 3.43, 3.43, 3.43, 3.16, 3.16, 2.86, 2.48, 1.11, 1.11, 2.86, 5.84, 6.11, 6.45, 6.79, 7.58, 8.17, 7.76, 8.06, 8.06, 8.56, 9.68, 10.7, 12.07, 12.52, 9.34, 1.6, -3.16, -3.16, -1.8, -0.98, 0.0, 1.13, 2.84, 2.53, 2.53, 2.53, 2.53, 6.96, 6.96, 6.96, 7.33, 7.61, 7.61, 7.61, 7.61, 7.61, 7.95, 8.24, 8.24, 8.87, 8.87, 8.87, 9.19, 9.19, 9.5, 9.8, 10.12, 10.12, 10.13, 10.43, 10.43, 10.43, 10.43, 10.4, 10.36, 10.09, 10.06, 10.01, 9.42, 9.37, 9.37, 9.02, 9.3, 9.3, 9.3, 9.3, 9.21, 9.48, 9.1, 8.82, 8.68, 8.28, 8.51, 8.3, 8.0, 8.17, 7.87, 7.51, 7.15, 6.71, 6.23, 5.57, 4.55, 4.0, 4.55, 4.55, 4.55, 4.27, 3.88, 3.72, 3.72, 3.72, 3.43, 3.16, 2.86, 1.8, 1.84, 2.51, 4.74, 5.37, 7.44, 7.2, 8.17, 8.48, 8.48, 8.06, 8.77, 9.21, 9.8, 10.7, 12.07, 12.52, 12.07, 8.45, 3.72, -1.13, -2.0, -1.08, -0.98, 0.0, 1.13, 1.98, 1.98, 1.98, 1.98, 6.7, 6.7, 6.97, 7.24, 7.61, 7.33, 7.33, 7.33, 7.61, 7.95, 7.95, 8.24, 8.56, 8.87, 9.48, 9.19, 9.5, 9.5, 10.12, 10.12, 10.12, 10.43, 10.43, 10.43, 10.13, 10.12, 10.12, 10.09, 9.77, 9.72, 9.66, 9.42, 9.37, 9.37, 9.02, 9.3, 9.3, 9.3, 9.3, 9.21, 9.1, 9.1, 8.82, 8.68, 8.28, 8.51, 8.3, 8.0, 8.17, 7.87, 7.13, 7.15, 6.71, 6.23, 5.57, 4.8, 4.4, 4.8, 4.9, 4.9, 4.8, 4.4, 4.27, 3.88, 3.88, 3.88, 3.43, 3.16, 2.84, 2.51, 2.51, 3.48, 4.55, 8.48, 7.63, 8.06, 8.56, 8.56, 8.77, 8.77, 9.35, 9.8, 10.7, 11.62, 12.49, 12.49, 11.18, 9.39, 6.17, 2.84, 0.0, 0.0, 0.0, 0.0, 0.88, 2.2, 2.2, 2.2, 6.7, 6.7, 6.97, 7.24, 7.61, 7.33, 7.33, 7.33, 7.61, 7.95, 7.95, 8.24, 8.56, 8.87, 9.48, 9.19, 9.5, 9.5, 10.12, 10.12, 10.12, 10.43, 10.43, 10.43, 10.13, 10.12, 10.12, 10.09, 9.77, 9.72, 9.66, 9.42, 9.37, 9.37, 9.02, 9.3, 9.3, 9.3, 9.3, 9.21, 9.1, 9.1, 8.82, 8.68, 8.28, 8.51, 8.3, 8.0, 8.17, 7.87, 7.13, 7.15, 6.71, 6.23, 5.57, 4.8, 4.4, 4.8, 4.9, 4.9, 4.8, 4.4, 4.27, 3.88, 3.88, 3.88, 3.43, 3.16, 2.84, 2.51, 2.51, 3.48, 4.55, 8.48, 7.63, 8.06, 8.56, 8.56, 8.77, 8.77, 9.35, 9.8, 10.7, 11.59, 12.04, 12.41, 11.95, 11.14, 10.28, 8.94, 6.71, 5.2, 2.48, 2.2, 2.2, 2.2, 2.2, 2.2]}, {"header": {"dx": 0.06612293990616946, "dy": 0.0552356325346848, "nx": 98, "ny": 59, "la1": 35.046912555036876, "la2": 31.78801023549047, "lo1": -121.43107172385933, "lo2": -114.95102361305473, "refTime": "2026041620", "parameterCategory": 1, "parameterNumber": 3}, "data": [-11.33, -10.99, -10.72, -10.72, -10.72, -10.13, -9.82, -9.21, -8.86, -7.95, -7.55, -6.5, -5.67, -3.42, -2.41, -0.82, -0.93, -0.94, -1.63, -4.8, -5.36, -5.51, -4.4, -4.0, -4.0, -4.4, -3.93, -3.79, -3.79, -4.29, -3.93, -4.4, -4.34, -4.47, -4.77, -4.29, -4.54, -4.43, -3.91, -3.0, -3.2, -2.83, -3.77, -5.08, -6.02, -6.52, -6.37, -4.0, -2.51, -2.51, -1.71, -0.78, -0.84, 0.0, 0.0, 0.84, 0.79, 1.63, 1.63, 1.58, 2.49, 3.17, 3.25, 4.24, 4.98, 4.87, 4.87, 4.87, 4.87, 4.13, 4.1, 4.06, 4.06, 4.33, 4.17, 4.17, 3.29, 2.82, 2.49, 1.68, 0.0, 0.0, -1.03, -2.2, -2.53, -1.26, 0.0, 0.0, 1.03, 1.03, 2.8, 5.24, 7.63, 8.77, 8.99, 8.17, 7.6, 7.85, -11.33, -11.33, -10.99, -10.99, -10.72, -10.43, -10.13, -9.5, -9.21, -8.86, -7.96, -7.74, -5.93, -4.58, -3.68, -2.6, -1.75, -1.33, -1.49, -3.22, -5.81, -5.81, -5.94, -5.94, -4.4, -3.48, -3.48, -3.93, -4.29, -4.6, -4.98, -5.26, -5.36, -5.36, -5.73, -5.6, -5.58, -5.58, -5.58, -4.58, -4.68, -5.1, -6.4, -7.49, -8.25, -7.15, -3.17, -1.63, -0.85, -1.63, -1.64, -1.6, -0.81, -0.74, 0.0, 0.0, 0.79, 0.82, 1.63, 1.63, 2.49, 3.17, 3.25, 4.0, 4.13, 4.13, 4.27, 4.04, 3.91, 4.13, 4.0, 3.23, 3.32, 3.19, 3.42, 3.29, 2.51, 2.82, 2.49, 1.68, 0.0, 0.0, -1.03, -2.2, -2.53, -1.26, 0.0, 0.0, 1.03, 1.03, 2.8, 5.24, 7.63, 8.77, 8.99, 8.17, 7.6, 7.85, -11.33, -11.33, -11.33, -10.99, -10.99, -10.72, -10.43, -10.13, -9.5, -8.86, -8.22, -6.96, -6.79, -5.86, -4.5, -3.51, -2.59, -2.47, -2.83, -4.56, -4.8, -6.26, -6.26, -6.07, -5.58, -3.93, -3.93, -4.4, -4.4, -4.98, -5.26, -5.73, -5.81, -7.15, -5.94, -7.47, -6.57, -6.8, -7.2, -6.55, -6.24, -6.97, -7.49, -8.06, -7.32, -4.76, -1.6, -0.86, -0.86, -0.83, -0.86, -0.83, 0.0, 0.0, 0.0, 0.81, 0.79, 1.63, 1.63, 2.43, 2.35, 3.28, 3.17, 4.13, 4.13, 4.04, 4.04, 4.04, 3.28, 3.17, 3.25, 2.45, 2.53, 1.7, 1.7, 1.63, 1.63, 2.6, 1.54, 0.89, 0.0, 0.0, -0.96, -2.48, -2.97, -2.68, -2.21, -1.05, 0.0, 1.84, 4.43, 7.12, 8.77, 8.77, 8.48, 7.2, 6.6, 7.54, -11.58, -11.58, -11.33, -11.33, -10.99, -10.99, -10.43, -10.43, -9.84, -9.21, -8.59, -8.24, -7.63, -5.51, -4.8, -4.25, -4.07, -3.65, -3.36, -3.45, -4.74, -6.0, -6.26, -4.82, -4.98, -5.58, -4.8, -4.4, -4.77, -4.92, -5.36, -5.81, -6.26, -6.94, -7.06, -7.47, -7.28, -8.0, -8.4, -8.82, -9.0, -9.06, -8.05, -6.52, -4.81, -2.45, -0.83, -0.83, 0.0, 0.0, 0.0, 0.0, 0.0, 0.0, 0.81, 0.79, 0.82, 1.59, 1.59, 1.68, 2.43, 2.49, 3.17, 3.17, 3.28, 3.28, 3.38, 3.64, 3.75, 3.64, 3.17, 2.45, 1.7, 0.75, 0.75, 0.0, 0.0, 0.85, 1.68, 0.94, 0.79, 0.0, -1.14, -2.48, -3.82, -3.72, -2.2, -1.05, 1.14, 3.91, 6.57, 7.85, 8.33, 8.06, 7.6, 6.55, 6.21, 7.54, -11.58, -11.58, -11.58, -11.33, -11.33, -11.33, -11.03, -10.75, -10.13, -9.84, -9.21, -8.87, -8.18, -6.48, -5.14, -4.92, -4.71, -5.06, -4.92, -5.06, -5.86, -6.8, -6.51, -6.26, -5.26, -5.94, -6.07, -6.26, -6.26, -5.36, -5.73, -5.51, -6.36, -6.0, -7.47, -7.06, -6.8, -6.63, -9.03, -10.63, -10.01, -8.12, -6.7, -5.06, -3.32, -2.37, -1.65, -1.65, -1.61, -1.66, -1.57, -0.81, -0.81, 0.0, 0.0, 0.0, 0.0, 0.0, 0.82, 0.8, 0.79, 1.62, 2.41, 3.17, 3.28, 3.28, 3.28, 4.04, 4.91, 4.91, 4.13, 3.34, 2.95, 1.76, 0.0, 0.0, 0.0, 0.0, 0.94, 0.79, 0.78, 1.03, 1.05, 0.0, -2.84, -1.41, 0.0, 2.16, 4.43, 6.57, 7.63, 8.29, 8.29, 7.2, 6.55, 5.84, 6.0, 7.6, -11.92, -11.58, -11.87, -11.87, -11.58, -11.33, -11.33, -10.75, -10.45, -10.13, -9.21, -9.19, -8.66, -6.48, -5.35, -5.14, -4.92, -5.29, -5.9, -6.15, -6.48, -6.55, -7.45, -6.71, -6.71, -6.26, -6.26, -6.26, -6.71, -7.15, -5.73, -5.6, -5.06, -4.68, -3.9, -3.79, -3.93, -3.16, -6.16, -9.49, -9.36, -7.59, -5.06, -4.13, -3.42, -3.32, -3.44, -3.23, -3.34, -2.39, -2.47, -1.66, -1.66, -1.62, -0.84, -0.82, 0.0, 0.0, 0.0, 0.82, 0.81, 1.61, 3.25, 3.36, 3.28, 4.16, 4.13, 4.98, 5.55, 5.73, 5.55, 5.11, 4.17, 2.71, 0.89, 0.0, 0.0, 0.95, 2.12, 1.98, 3.79, 5.4, 5.94, 5.26, 3.6, 2.48, 3.79, 5.24, 6.57, 7.37, 7.85, 7.85, 7.53, 6.18, 5.37, 5.06, 6.45, 7.6, -11.92, -11.58, -11.87, -11.87, -11.87, -11.33, -11.33, -11.03, -10.75, -10.45, -10.13, -9.19, -8.66, -6.7, -5.86, -5.14, -4.8, -5.52, -5.52, -5.41, -5.41, -5.21, -4.74, -4.8, -4.8, -4.8, -3.48, -4.4, -5.81, -5.81, -7.15, -5.94, -4.58, -3.8, -3.27, -2.64, -2.2, 0.0, -0.0, -4.77, -6.51, -5.72, -4.14, -1.47, -1.33, -0.81, 0.0, -0.85, -0.85, -1.11, -1.16, -0.86, -0.86, -0.83, -0.81, 0.0, 0.0, 0.0, 0.0, 0.81, 1.71, 2.45, 2.39, 3.25, 4.13, 4.87, 5.67, 5.8, 5.8, 4.98, 4.98, 4.93, 3.91, 3.29, 2.47, 1.95, 2.12, 1.98, 2.99, 4.77, 6.26, 7.54, 8.05, 7.6, 7.15, 5.75, 6.45, 6.57, 6.88, 7.37, 6.98, 6.7, 6.6, 4.58, 4.58, 5.24, 6.64, 7.6, -12.22, -11.87, -11.87, -11.87, -11.87, -11.87, -11.33, -11.03, -11.36, -11.06, -10.43, -9.77, -9.02, -7.93, -6.94, -5.41, -5.3, -4.87, -5.09, -5.0, -5.0, -3.85, -2.59, -0.94, 0.96, 1.52, 1.98, 1.98, 0.0, -5.94, -7.6, -7.89, -6.9, -4.37, -2.51, -1.55, -0.82, 3.39, 5.21, 4.0, 0.0, 0.0, 1.52, 2.82, 4.37, 4.4, 4.2, 3.36, 2.47, 2.49, 1.68, 1.69, 0.86, 0.83, 0.0, 0.0, 0.0, 0.0, 0.0, 0.83, 1.71, 1.64, 2.53, 4.33, 5.72, 6.79, 6.65, 4.93, 4.06, 3.44, 3.23, 2.62, 1.71, 0.86, 0.85, 2.4, 2.82, 1.98, 2.4, 4.47, 4.54, 6.4, 6.51, 6.71, 6.71, 6.71, 6.2, 6.45, 6.64, 6.64, 6.02, 5.34, 4.74, 4.58, 4.19, 5.6, 7.15, 7.6, -12.22, -11.87, -11.87, -11.87, -11.87, -11.87, -11.58, -11.63, -11.63, -11.36, -10.43, -10.65, -11.03, -8.85, -8.07, -7.26, -7.1, -6.45, -5.86, -6.41, -6.5, -5.0, -2.83, 0.0, 4.58, 5.69, 5.37, 5.69, 3.4, -1.63, -5.94, -4.4, 0.0, 0.0, 0.96, 0.0, 0.0, 6.4, 7.6, 6.51, 6.07, 4.74, 5.37, 6.01, 6.64, 6.18, 6.5, 6.76, 5.14, 5.14, 3.68, 2.49, 1.7, 0.8, 0.0, 0.0, 0.0, 0.0, 0.0, 0.0, 0.0, 1.69, 4.2, 6.83, 7.78, 6.94, 5.8, 4.21, 2.44, 0.83, 0.0, 0.0, -0.83, -0.76, 0.0, 0.94, 0.95, 1.98, 3.48, 4.47, 4.98, 4.43, 4.19, 4.66, 5.36, 4.92, 4.85, 5.26, 5.29, 5.29, 5.09, 4.6, 4.11, 4.74, 5.24, 5.94, 7.15, 7.15, -11.87, -11.87, -11.87, -11.52, -11.52, -11.87, -11.92, -11.96, -11.96, -11.36, -10.99, -11.28, -9.46, -8.53, -9.17, -8.22, -8.22, -8.22, -7.85, -7.9, -7.27, -6.95, -4.14, 1.7, 6.51, 6.4, 6.4, 5.72, 4.29, 1.63, 2.2, 5.81, 7.01, 6.8, 5.69, 2.99, 4.14, 7.2, 8.0, 7.28, 5.49, 4.29, 4.29, 4.58, 4.42, 5.1, 5.21, 5.06, 5.14, 5.0, 3.39, 2.6, 1.63, 0.0, 0.0, 0.0, -0.83, -1.7, -1.7, -1.69, 0.89, 6.11, 9.6, 9.43, 8.22, 6.7, 5.11, 3.6, 0.73, -0.83, -2.54, -3.53, -3.6, -3.02, -1.58, -0.78, 0.0, 2.48, 4.02, 4.92, 5.36, 4.38, 2.68, 1.8, 2.98, 2.97, 3.13, 3.58, 3.58, 3.9, 4.0, 4.57, 4.98, 4.89, 6.0, 6.64, 6.71, 6.71, -11.87, -11.87, -11.87, -11.8, -11.87, -12.45, -12.51, -12.22, -11.96, -11.63, -11.33, -10.99, -10.72, -9.5, -8.72, -8.12, -7.42, -4.47, -3.85, -2.77, -5.06, -4.74, -2.2, 4.47, 6.71, 6.26, 6.07, 6.07, 6.0, 5.06, 6.8, 6.99, 6.57, 5.06, 4.58, 4.14, 6.32, 7.56, 7.15, 6.32, 5.24, 3.55, 3.72, 4.29, 5.69, 5.37, 5.53, 4.74, 4.56, 4.2, 4.4, 4.25, 3.65, 3.49, 2.57, 1.75, 0.85, -1.68, -3.63, 0.0, 7.37, 10.89, 11.27, 10.63, 9.34, 8.12, 6.56, 4.06, 0.0, -3.23, -5.67, -5.89, -5.3, -4.0, -2.35, -1.83, 0.0, 4.02, 4.98, 5.73, 4.92, 4.47, 3.47, -0.0, -0.0, -0.0, 1.2, 1.9, 2.24, 2.68, 3.58, 4.77, 4.98, 4.98, 5.94, 6.2, 6.26, 6.26, -11.87, -11.87, -12.16, -12.16, -12.09, -12.45, -12.51, -12.22, -11.96, -11.92, -11.33, -11.33, -11.03, -10.45, -8.2, -6.27, -4.57, -3.3, -2.69, -1.65, -1.1, 0.0, 1.1, 3.91, 5.64, 5.81, 5.36, 2.68, 4.47, 5.51, 6.4, 5.84, 5.84, 4.87, 4.42, 5.24, 5.59, 5.89, 5.36, 4.34, 3.6, 3.55, 4.74, 6.08, 7.06, 5.95, 6.01, 6.01, 5.59, 5.59, 6.32, 7.06, 6.73, 6.79, 6.55, 6.11, 5.53, 0.0, -3.72, 5.51, 12.52, 13.18, 12.53, 11.79, 11.6, 11.03, 9.96, 6.84, 2.59, -1.76, -6.05, -6.95, -6.06, -4.74, -3.48, -2.68, 1.27, 3.22, 3.58, 3.58, 4.34, 4.92, 5.36, 1.27, -0.0, -0.88, -0.0, -0.0, -0.0, 1.4, 2.8, 3.58, 3.9, 4.98, 5.51, 5.73, 5.81, 5.81, -12.37, -12.16, -12.16, -12.09, -12.45, -12.51, -12.51, -12.51, -11.92, -11.92, -11.33, -11.33, -11.03, -11.06, -10.13, -7.5, -5.92, -3.93, -2.8, -1.72, -0.55, 0.0, 1.17, 1.12, 1.55, 1.58, 1.79, 1.79, 1.34, 0.89, 3.16, 5.15, 5.37, 5.37, 5.24, 5.53, 5.59, 5.36, 3.45, 2.69, 2.67, 3.72, 4.98, 5.51, 6.51, 6.4, 6.8, 6.44, 7.28, 7.28, 6.44, 6.44, 6.7, 6.98, 7.94, 8.6, 8.8, 1.73, -2.68, 9.13, 13.83, 12.86, 12.27, 12.24, 12.53, 12.45, 11.75, 10.43, 7.41, 4.74, -3.2, -6.17, -5.73, -5.36, -4.24, -0.0, 1.05, 0.96, 0.99, 1.79, 2.68, 4.47, 4.38, 5.36, 3.2, -0.0, -1.05, -0.98, -0.0, -0.0, -0.0, 1.9, 3.13, 4.47, 5.26, 5.26, 5.36, 5.36, -12.37, -12.37, -12.37, -12.09, -12.45, -12.51, -12.51, -12.16, -11.92, -11.92, -11.92, -11.63, -11.36, -11.36, -10.47, -9.2, -7.7, -5.85, -4.66, -3.5, -2.3, -1.13, 0.0, 0.0, 0.0, 0.5, 0.57, 0.63, 0.45, 0.0, 0.57, 3.79, 5.37, 5.37, 5.69, 5.69, 5.3, 4.5, 2.69, 2.67, 3.47, 4.6, 5.2, 5.64, 5.64, 6.51, 5.94, 6.8, 7.06, 7.06, 6.64, 6.0, 6.58, 6.71, 7.01, 6.07, 6.79, 2.83, 3.4, 10.28, 12.49, 12.9, 12.9, 12.9, 11.51, 11.33, 10.32, 9.75, 9.32, 7.2, 2.68, -3.72, -3.91, -4.11, -2.4, -0.0, -0.0, -0.0, -0.0, 0.0, 2.68, 3.58, 2.98, 2.97, 4.47, 3.2, -0.0, -1.19, -0.0, -0.0, -0.0, 0.87, 2.21, 3.13, 3.13, 4.47, 4.92, 5.36, -12.37, -12.37, -12.09, -12.45, -12.45, -12.45, -12.45, -12.45, -11.92, -11.92, -11.92, -11.63, -11.63, -11.36, -11.06, -10.47, -9.19, -7.45, -6.33, -5.18, -4.01, -2.85, -1.77, -1.11, -0.55, -0.56, 0.0, 0.0, 0.57, 0.57, 0.0, 1.16, 4.29, 5.69, 6.28, 7.44, 6.95, 4.5, 2.69, 3.22, 4.98, 6.07, 5.64, 5.64, 6.07, 6.07, 7.01, 7.01, 6.58, 6.51, 6.07, 5.64, 5.64, 5.51, 5.94, 5.58, 4.56, 3.09, 6.14, 11.03, 9.83, 9.83, 9.74, 10.2, 10.65, 10.65, 9.89, 8.8, 6.64, 5.46, 0.0, -4.29, -3.72, -2.16, -0.0, 2.53, 3.58, 3.58, 3.2, 2.23, 2.48, 2.21, -0.0, -0.0, 1.4, 4.92, 3.2, -0.0, -0.0, -0.0, -0.0, -0.0, -0.0, -0.0, 1.9, 4.02, 4.92, 4.92, -12.37, -12.37, -12.09, -12.45, -12.45, -12.45, -12.45, -12.45, -12.45, -11.92, -11.92, -11.63, -11.63, -11.36, -11.06, -10.77, -9.84, -8.79, -7.7, -6.33, -5.38, -4.03, -3.56, -2.28, -1.69, -1.18, -1.1, -0.54, 0.0, 0.59, 0.59, 0.57, 1.08, 4.56, 7.28, 7.03, 7.15, 5.69, 4.74, 5.64, 5.81, 6.2, 7.01, 7.45, 7.01, 7.01, 6.58, 6.51, 6.07, 6.07, 6.07, 5.51, 5.09, 3.79, 2.4, 1.98, 3.2, 4.83, 6.64, 8.54, 7.37, 7.01, 6.51, 7.01, 7.45, 7.89, 6.16, 6.32, 6.14, 2.97, -0.96, -4.22, -2.12, 1.19, 5.81, 7.12, 6.79, 6.01, 4.68, 3.77, 2.82, 0.96, -2.21, -1.6, -0.0, 1.27, 4.47, 3.82, 3.2, 2.53, -0.0, -0.0, -0.0, 1.4, 1.2, 2.97, 4.02, 4.02, -12.37, -12.37, -12.37, -12.45, -12.45, -12.45, -12.45, -12.45, -12.45, -12.16, -11.92, -11.63, -11.63, -11.63, -11.38, -11.08, -10.13, -9.47, -8.14, -7.03, -6.36, -5.25, -4.1, -2.93, -2.21, -1.71, -1.11, -1.14, -0.56, 0.0, 0.0, 0.0, 0.57, 4.29, 5.82, 7.35, 7.63, 7.47, 7.45, 7.15, 7.6, 7.15, 8.05, 7.1, 7.63, 7.47, 6.64, 6.07, 6.26, 6.07, 5.64, 4.84, 4.84, 4.11, 3.47, 2.8, 3.0, 4.29, 5.37, 5.37, 5.36, 4.46, 4.4, 3.48, 3.79, 3.72, 5.58, 4.56, 3.15, 0.0, -4.11, -2.95, 1.05, 6.71, 9.24, 10.04, 9.17, 7.51, 5.0, 4.25, 3.49, 1.75, -1.19, -2.4, -0.0, 1.19, 2.84, 4.34, 4.47, 3.16, -0.0, -0.0, 1.98, 3.35, 2.84, 2.98, 3.47, 3.47, -12.37, -12.37, -12.37, -12.09, -12.45, -12.45, -12.09, -12.09, -12.45, -12.16, -12.26, -11.96, -11.96, -11.96, -11.06, -10.47, -10.47, -9.84, -8.81, -7.73, -6.6, -5.73, -4.62, -3.34, -2.3, -1.69, -1.71, -2.17, -2.33, -1.73, -1.14, 0.0, 0.57, 2.23, 4.0, 6.45, 7.15, 8.05, 8.05, 7.6, 8.05, 8.05, 7.6, 7.89, 8.06, 6.63, 5.72, 6.07, 5.81, 5.64, 5.64, 5.21, 5.21, 4.43, 4.74, 4.74, 4.02, 4.29, 4.29, 3.2, 3.47, 4.11, 2.2, 0.0, 0.0, 0.0, 1.27, 1.63, 0.0, 0.0, 0.0, 3.0, 7.51, 9.66, 10.22, 9.24, 7.59, 6.73, 4.93, 4.13, 3.49, 2.54, 0.0, 2.23, 3.22, 3.22, 3.22, 4.4, 4.92, 4.92, 3.82, 3.48, 4.6, 5.29, 5.36, 4.47, 4.02, 4.02, -12.37, -12.37, -12.37, -12.09, -12.45, -12.09, -12.09, -12.09, -12.45, -12.16, -12.51, -11.96, -11.96, -11.96, -11.63, -12.64, -10.76, -10.13, -9.09, -7.5, -6.36, -6.36, -5.77, -4.98, -4.17, -3.68, -3.4, -4.4, -3.45, -1.58, -0.99, 0.0, 0.61, 1.84, 2.79, 3.87, 4.02, 4.47, 6.26, 7.15, 6.26, 6.71, 7.6, 7.63, 8.0, 6.63, 5.72, 6.26, 6.26, 6.71, 6.51, 6.0, 6.0, 6.0, 5.36, 5.72, 4.29, 4.56, 3.91, 2.66, 1.52, 1.7, 0.0, 0.0, 1.13, 1.13, 1.08, 0.0, 0.0, 0.0, 3.58, 7.27, 9.89, 9.66, 7.27, 4.95, 3.2, 2.41, 2.54, 2.51, 1.75, 1.03, 1.6, 3.6, 4.65, 4.11, 2.99, 2.53, 4.34, 4.47, 5.81, 6.17, 6.45, 6.21, 6.71, 5.73, 5.81, 5.81, -12.65, -12.37, -12.37, -12.09, -12.09, -12.09, -12.09, -12.09, -12.45, -12.16, -12.51, -12.22, -11.96, -11.96, -11.96, -10.76, -10.76, -10.45, -10.83, -9.25, -8.16, -7.1, -7.13, -7.36, -6.56, -5.9, -5.36, -3.16, -1.26, 0.0, 0.0, 0.0, 0.65, 1.2, 2.15, 2.91, 3.13, 3.13, 3.58, 3.58, 4.02, 4.47, 4.89, 6.04, 6.51, 6.63, 7.01, 7.15, 7.6, 7.6, 7.94, 7.94, 7.45, 6.64, 6.0, 5.95, 5.69, 4.16, 2.99, 1.49, 0.0, 0.0, 0.0, 4.4, 4.0, 4.29, 2.76, 1.84, 0.94, 1.63, 4.13, 5.76, 6.57, 4.74, 1.58, 0.0, -1.67, -1.61, 0.0, 0.85, 0.89, 1.01, 2.2, 4.02, 4.09, 3.16, 2.0, 1.83, 3.16, 4.38, 5.81, 6.71, 6.64, 6.71, 5.81, 6.17, 6.17, 6.17, -12.65, -12.37, -12.37, -12.37, -12.09, -12.09, -12.09, -12.45, -12.45, -12.16, -12.51, -12.22, -12.22, -11.96, -11.96, -11.38, -10.47, -10.45, -9.82, -10.65, -9.49, -7.59, -7.96, -7.96, -6.96, -5.7, -3.84, -2.51, -0.63, 0.45, 0.63, 0.57, 0.54, 1.0, 1.9, 2.4, 2.63, 2.68, 3.13, 3.58, 4.02, 4.47, 5.36, 6.71, 7.51, 8.85, 7.6, 7.94, 8.49, 8.49, 8.41, 8.38, 8.38, 7.94, 7.63, 6.21, 6.55, 4.95, 2.69, 0.0, 0.0, 0.0, 4.0, 6.07, 5.94, 5.21, 4.74, 3.77, 2.69, 2.59, 4.06, 4.91, 2.39, 0.0, -1.61, -2.51, -3.61, -2.59, -0.85, 0.0, 0.94, 0.94, 1.96, 2.53, 3.72, 4.47, 4.47, 4.15, 3.35, 3.48, 4.98, 6.17, 5.73, 4.92, 4.47, 4.85, 5.31, 5.31, -12.65, -12.37, -12.37, -12.37, -12.37, -12.09, -12.09, -12.45, -12.45, -12.16, -12.51, -12.22, -12.22, -11.96, -11.96, -11.99, -11.08, -10.76, -10.76, -10.13, -8.87, -7.33, -7.61, -7.95, -7.96, -6.56, -4.6, -2.92, -1.08, 0.0, 0.0, 0.0, 0.0, 0.54, 1.24, 1.86, 2.6, 2.68, 3.13, 3.53, 4.43, 4.8, 5.7, 6.68, 7.6, 7.13, 8.05, 8.06, 8.85, 8.94, 8.94, 8.85, 8.41, 8.41, 8.06, 7.6, 7.2, 6.79, 4.56, 1.7, 0.0, 2.68, 4.92, 5.51, 5.6, 5.24, 4.74, 4.42, 4.26, 5.46, 6.76, 7.36, 4.4, 0.0, -3.13, -2.98, -3.48, -3.22, -1.72, 0.0, 0.94, 2.4, 2.67, 3.77, 4.74, 5.37, 5.94, 6.71, 5.59, 2.6, 2.76, 3.58, 3.9, 3.58, 3.58, 4.47, 6.26, 6.26, -12.65, -12.65, -12.65, -12.37, -12.37, -12.09, -12.45, -12.45, -12.45, -12.16, -12.51, -12.51, -12.22, -11.96, -11.96, -11.99, -11.7, -11.08, -10.76, -10.47, -9.22, -7.59, -6.97, -7.6, -7.93, -7.61, -5.89, -3.91, -2.86, -1.65, -0.55, -0.51, 0.0, 0.0, 0.57, 1.26, 2.12, 2.17, 2.68, 3.09, 4.3, 4.6, 5.09, 6.04, 6.94, 7.07, 8.38, 8.06, 8.85, 8.94, 9.39, 8.94, 8.94, 8.85, 8.85, 8.48, 8.48, 8.3, 6.9, 4.4, 3.9, 4.82, 5.29, 5.2, 4.89, 4.43, 4.74, 4.58, 4.68, 4.68, 6.14, 6.87, -0.0, -0.0, -0.0, -0.96, -1.74, -2.24, -0.99, 0.0, 1.6, 2.82, 3.77, 4.87, 5.37, 5.95, 6.36, 6.64, 7.08, 5.7, 0.88, 0.98, 1.2, 1.9, 3.9, 5.29, 5.81, 5.81, -12.65, -12.65, -12.65, -12.37, -12.37, -12.09, -12.45, -12.45, -12.45, -12.16, -12.51, -12.51, -12.22, -12.22, -11.96, -11.67, -11.99, -11.08, -11.08, -10.47, -9.84, -8.58, -6.94, -6.71, -6.98, -7.32, -6.97, -5.67, -4.6, -3.52, -2.29, -1.73, -1.13, 0.0, 0.0, 0.6, 1.26, 1.7, 1.79, 2.6, 3.2, 4.27, 4.55, 5.08, 5.6, 6.1, 8.06, 8.06, 8.85, 9.29, 9.83, 9.39, 9.39, 9.39, 9.29, 8.85, 8.45, 8.77, 8.91, 7.47, 6.36, 6.02, 5.6, 5.2, 4.89, 5.58, 5.15, 5.03, 4.42, 3.77, 2.82, 0.0, 0.0, -1.4, -0.0, -0.0, -0.0, -0.0, 0.0, 0.0, 1.08, 2.4, 3.22, 4.01, 5.06, 5.58, 6.0, 6.45, 6.88, 6.57, 1.19, -0.88, -0.99, 1.4, 5.09, 6.65, 6.71, 6.71, -12.65, -12.65, -12.65, -12.37, -12.37, -12.37, -12.45, -12.45, -12.45, -12.16, -12.51, -12.51, -12.22, -12.22, -11.96, -11.67, -11.99, -11.7, -11.08, -10.47, -10.47, -9.49, -8.22, -6.94, -6.98, -6.98, -6.98, -6.71, -5.92, -4.63, -3.8, -2.77, -1.73, -1.16, 0.0, 0.0, 0.6, 1.26, 1.6, 1.79, 2.63, 3.35, 3.48, 3.79, 4.37, 4.65, 5.08, 5.51, 5.99, 6.47, 7.06, 9.83, 9.39, 9.83, 9.83, 9.39, 9.39, 8.49, 9.29, 8.91, 7.67, 6.57, 6.16, 6.16, 6.57, 6.21, 6.18, 5.69, 4.68, 1.84, 0.0, 0.0, 0.0, 0.86, 0.85, 0.0, -0.0, -0.0, -0.0, 0.0, 1.4, 3.16, 3.48, 4.54, 5.58, 5.58, 6.0, 6.0, 6.4, 6.07, 5.84, -0.0, -0.0, 4.34, 7.15, 7.6, 8.01, 8.01, -12.65, -12.65, -12.65, -12.65, -12.37, -12.37, -12.37, -12.45, -12.45, -12.16, -12.51, -12.51, -12.22, -12.22, -12.22, -11.67, -11.67, -11.99, -11.08, -11.08, -10.47, -10.13, -9.5, -7.96, -6.96, -6.98, -6.98, -6.98, -6.34, -5.7, -5.08, -3.81, -2.8, -1.76, -0.53, 0.0, 0.0, 0.6, 0.8, 1.26, 2.24, 2.4, 2.84, 3.49, 3.78, 4.41, 4.55, 5.31, 5.99, 6.47, 6.79, 6.94, 9.76, 10.28, 10.28, 10.28, 9.39, 9.39, 9.76, 9.46, 8.4, 7.67, 6.57, 7.12, 7.53, 7.2, 6.79, 6.01, 3.8, 1.84, 0.0, 0.0, 0.0, 1.67, 2.49, 1.65, 0.0, -1.9, -0.0, 3.2, 3.82, 4.47, 4.82, 5.09, 5.2, 6.0, 5.95, 6.6, 5.84, 5.82, 6.55, 3.35, 3.58, 6.21, 8.01, 8.77, 8.19, 8.19, -12.27, -12.27, -12.27, -12.65, -12.37, -12.37, -12.37, -12.45, -12.45, -12.16, -12.51, -12.51, -12.51, -12.22, -12.22, -11.67, -11.67, -11.67, -11.38, -11.38, -10.76, -10.13, -9.84, -8.86, -8.23, -6.96, -6.98, -6.98, -6.98, -6.08, -5.72, -5.46, -4.45, -3.84, -2.84, -1.84, -0.54, 0.0, 0.0, 0.57, 1.24, 1.9, 1.86, 2.48, 3.08, 4.12, 5.21, 5.81, 5.81, 6.3, 6.79, 6.79, 6.94, 7.51, 9.79, 9.39, 9.39, 9.39, 8.9, 8.56, 8.8, 7.76, 8.91, 8.06, 9.04, 7.2, 7.15, 5.36, 3.63, 1.84, 0.89, 0.0, 0.0, 0.81, 2.47, 2.47, 0.0, -2.97, -0.0, 3.22, 4.11, 5.51, 4.92, 4.85, 5.09, 5.34, 6.21, 6.55, 5.69, 5.84, 6.08, 6.44, 6.55, 8.06, 8.14, 7.89, 7.89, 7.89, -12.27, -12.27, -12.27, -12.65, -12.37, -12.37, -12.37, -12.45, -12.45, -12.16, -12.51, -12.51, -12.51, -12.22, -12.22, -11.67, -11.67, -11.67, -11.38, -11.38, -10.76, -10.45, -9.84, -9.5, -8.87, -7.96, -6.97, -6.97, -6.7, -6.35, -6.08, -6.0, -5.34, -4.46, -3.45, -2.22, -1.61, -0.71, 0.0, 0.0, 1.26, 1.9, 2.21, 1.26, 1.2, 2.36, 4.45, 6.0, 5.81, 6.3, 6.51, 6.94, 6.94, 6.94, 7.51, 9.35, 9.39, 9.39, 9.35, 9.49, 8.56, 8.56, 8.99, 8.72, 8.21, 8.37, 6.18, 4.56, 2.7, 1.76, 0.0, 0.0, -0.83, 0.0, 0.0, 0.0, 0.0, -3.2, -1.03, 1.03, 2.8, 3.88, 3.09, 4.47, 4.38, 4.66, 4.84, 5.84, 5.69, 5.69, 6.55, 6.45, 7.15, 7.42, 7.6, 7.6, 7.6, 7.6, -12.27, -12.27, -12.27, -12.65, -12.37, -12.37, -12.37, -12.45, -12.45, -12.45, -12.16, -12.16, -12.51, -12.22, -12.22, -11.96, -11.67, -11.67, -11.38, -11.06, -10.76, -10.45, -10.13, -9.82, -9.21, -8.87, -8.23, -7.6, -6.97, -6.98, -6.35, -6.35, -5.72, -5.09, -4.47, -3.22, -2.23, -1.2, -0.57, 0.0, 0.8, 1.86, 2.68, 4.29, 4.77, 2.53, 4.12, 5.86, 5.6, 6.3, 6.3, 6.94, 6.94, 6.61, 6.51, 6.61, 9.29, 9.83, 9.35, 9.24, 9.24, 8.99, 8.72, 8.8, 8.18, 6.95, 6.83, 5.21, 2.57, 0.85, 0.0, 0.0, -0.83, -2.44, -2.45, -2.54, 0.0, 0.0, -2.21, -0.89, 1.03, 3.14, 2.91, 2.24, 4.47, 4.38, 4.57, 4.89, 5.49, 5.37, 6.11, 6.01, 6.32, 7.06, 7.06, 7.07, 7.07, 7.07, -12.54, -12.54, -12.27, -12.65, -12.65, -12.37, -12.37, -12.45, -12.45, -12.45, -12.45, -12.16, -12.51, -12.51, -12.22, -11.96, -11.67, -11.67, -11.38, -11.06, -11.06, -10.45, -10.43, -9.82, -9.5, -9.5, -8.87, -8.24, -7.61, -6.98, -6.35, -6.08, -6.35, -5.72, -5.1, -4.47, -3.22, -2.23, -1.2, 0.0, 0.0, 1.26, 2.4, 3.6, 4.4, 5.36, 6.21, 5.75, 5.6, 5.81, 5.99, 6.04, 6.61, 6.61, 6.61, 6.6, 6.6, 7.15, 9.39, 9.35, 9.24, 8.99, 8.4, 7.81, 7.4, 6.95, 7.68, 7.15, 3.8, 0.94, 0.0, 1.76, 1.71, 0.0, -1.6, -2.45, -0.86, 0.0, 0.0, -2.53, -1.05, 0.65, 1.61, 1.58, 2.17, 4.02, 3.9, 3.58, 4.11, 4.01, 3.9, 4.68, 4.71, 6.95, 6.68, 7.06, 7.07, 7.07, -12.54, -12.54, -12.27, -12.65, -12.65, -12.37, -12.37, -12.37, -12.45, -12.45, -12.45, -12.45, -12.16, -12.51, -12.22, -11.96, -11.96, -11.67, -11.06, -11.06, -11.06, -10.75, -10.43, -9.82, -10.12, -9.5, -8.87, -8.24, -7.6, -7.24, -6.71, -6.34, -6.35, -6.0, -5.72, -5.1, -3.85, -2.86, -1.84, -0.71, 0.0, 0.8, 1.86, 3.07, 3.98, 5.81, 6.16, 5.31, 5.4, 5.57, 5.57, 6.16, 6.16, 6.68, 6.68, 6.68, 6.68, 7.13, 7.15, 9.35, 9.24, 8.72, 8.43, 7.06, 7.06, 6.32, 6.73, 8.24, 6.58, 4.2, 3.6, 5.06, 5.93, 5.02, 1.66, -0.86, -2.51, -1.63, -0.8, 0.0, -1.58, -0.81, -0.0, 1.0, 1.0, 0.99, 1.34, 2.98, 2.53, 2.29, 2.47, 2.51, 2.99, 4.0, 6.24, 6.32, 6.7, 6.7, -12.54, -12.54, -12.27, -12.27, -12.65, -12.37, -12.37, -12.37, -12.09, -12.45, -12.45, -12.45, -12.16, -12.51, -12.22, -11.96, -11.96, -11.96, -11.06, -11.36, -11.36, -10.75, -10.75, -10.13, -10.12, -9.5, -9.19, -8.87, -8.95, -7.33, -7.61, -6.97, -6.34, -6.35, -5.72, -5.09, -4.73, -3.47, -2.6, -1.61, -0.71, 0.0, 1.26, 1.7, 2.68, 3.07, 3.87, 5.09, 5.31, 5.57, 5.7, 5.7, 6.23, 6.23, 6.26, 6.71, 7.15, 7.15, 7.15, 7.6, 9.24, 8.72, 7.41, 6.68, 6.64, 6.01, 6.11, 6.64, 6.3, 5.7, 6.18, 6.31, 6.63, 5.85, 3.22, 0.84, -0.89, -0.89, 0.0, 0.75, 1.55, 0.0, -0.81, -0.0, -0.0, -0.0, -0.0, 0.32, 0.96, 0.82, 0.0, 0.0, 1.49, 2.44, 4.6, 5.59, 6.06, 6.06, -12.54, -12.54, -12.27, -12.27, -12.65, -12.37, -12.37, -12.37, -12.09, -12.45, -12.45, -12.45, -12.16, -12.16, -12.16, -11.96, -11.96, -11.96, -11.36, -11.36, -11.36, -11.03, -10.75, -10.43, -10.12, -9.5, -9.48, -8.87, -8.24, -8.95, -7.93, -7.61, -6.98, -6.63, -6.08, -5.46, -5.09, -4.47, -3.22, -2.48, -1.2, 0.0, 0.0, 0.8, 1.2, 1.34, 2.63, 4.34, 5.51, 5.57, 5.7, 5.78, 6.23, 6.26, 6.26, 7.15, 7.6, 7.6, 7.6, 7.58, 7.51, 8.21, 8.37, 6.73, 6.73, 6.45, 6.11, 5.37, 5.86, 5.46, 5.46, 5.06, 3.25, 1.66, 2.4, 2.39, 2.53, 2.59, 2.28, 3.11, 3.69, 3.06, 0.0, -1.13, -0.51, -0.54, -0.6, -0.45, 0.0, 0.0, 0.0, -0.89, 0.0, 0.76, 2.31, 5.1, 5.37, 5.37, -12.54, -12.54, -12.27, -12.27, -12.27, -12.0, -12.37, -12.37, -12.37, -12.09, -12.45, -12.45, -12.45, -12.16, -11.92, -11.63, -11.63, -11.63, -11.36, -11.36, -11.36, -11.03, -10.43, -10.72, -10.12, -9.5, -9.48, -9.19, -8.87, -7.96, -7.61, -7.6, -7.6, -6.98, -6.35, -5.98, -5.72, -5.09, -4.08, -3.49, -1.8, -1.0, 0.0, 0.0, 0.71, 0.6, 2.24, 3.87, 5.09, 5.7, 5.78, 5.78, 6.26, 6.26, 6.71, 7.15, 7.6, 7.6, 7.58, 7.51, 9.97, 9.63, 8.93, 7.56, 7.15, 6.79, 6.45, 5.69, 5.59, 5.46, 5.21, 5.54, 2.42, 0.0, 0.8, 3.24, 4.07, 4.13, 3.73, 2.82, 2.25, 2.15, 1.54, 0.0, -2.53, -1.61, -1.86, -1.2, 0.0, 0.0, -0.96, -1.03, -0.89, 0.0, 0.83, 4.03, 5.43, 5.43, -12.54, -12.54, -12.27, -12.27, -12.27, -12.27, -12.0, -12.37, -12.37, -12.09, -12.09, -12.45, -12.45, -12.16, -11.92, -11.92, -11.63, -11.63, -11.36, -11.36, -11.03, -10.75, -10.43, -10.4, -10.12, -9.8, -9.19, -9.19, -9.19, -8.59, -7.6, -7.61, -7.3, -7.3, -6.98, -6.35, -5.98, -5.72, -4.45, -3.84, -2.84, -1.8, -0.51, 0.0, 0.0, 0.0, 1.2, 3.09, 4.77, 5.26, 5.78, 5.81, 6.26, 6.26, 6.71, 7.15, 7.6, 7.6, 7.51, 7.97, 7.87, 10.46, 8.93, 8.37, 7.56, 7.21, 6.45, 6.01, 5.53, 5.36, 5.38, 5.2, 3.96, 1.65, 1.62, 2.43, 3.98, 4.07, 2.49, 0.78, 0.0, 0.0, 0.0, 0.0, -1.2, -2.5, -2.17, -2.23, 0.0, 0.0, 0.0, -0.96, -0.96, -0.82, 0.82, 2.6, 4.74, 4.74, -12.54, -12.54, -12.27, -12.27, -12.27, -12.27, -12.0, -12.0, -12.37, -12.09, -12.09, -12.09, -11.87, -11.87, -11.92, -11.92, -11.63, -11.63, -11.36, -11.36, -11.03, -10.75, -10.43, -10.4, -10.12, -9.8, -9.8, -9.19, -9.19, -8.87, -8.24, -7.33, -6.98, -6.98, -6.98, -6.98, -6.35, -5.72, -5.08, -4.45, -3.42, -2.18, -1.08, -1.11, -1.27, -1.2, 0.0, 2.24, 4.44, 5.33, 5.81, 5.81, 6.23, 6.23, 6.71, 7.15, 7.15, 7.13, 7.07, 7.97, 8.3, 8.0, 8.37, 7.81, 7.41, 7.56, 6.01, 6.01, 6.01, 5.53, 6.58, 5.9, 5.15, 3.25, 1.66, 0.81, 1.57, 1.58, 0.79, 0.0, -1.42, -2.39, -2.23, -1.58, -0.78, -3.58, -3.72, 0.0, 0.96, 1.05, 0.0, 0.0, 0.0, 0.0, 0.96, 2.53, 4.43, 4.43, -12.54, -12.54, -12.54, -12.27, -12.27, -12.27, -11.8, -11.8, -11.8, -12.16, -11.87, -11.87, -11.87, -11.87, -11.92, -11.92, -11.92, -11.63, -11.36, -11.03, -11.03, -10.43, -10.43, -10.4, -10.12, -10.12, -9.8, -9.5, -9.19, -8.87, -8.24, -7.6, -6.96, -6.98, -6.98, -6.98, -6.35, -5.98, -5.32, -4.66, -4.03, -2.96, -1.67, -1.96, -1.76, -1.84, -0.57, 1.7, 4.47, 5.36, 5.36, 5.78, 5.78, 6.16, 6.68, 7.13, 6.68, 6.68, 7.51, 7.87, 7.87, 8.17, 8.93, 7.81, 7.76, 7.56, 6.45, 6.45, 6.01, 6.01, 5.89, 6.04, 6.3, 6.02, 3.36, 0.8, 0.0, 0.0, 0.0, 0.0, -1.52, -2.28, -3.32, -3.27, -2.26, -1.72, 0.0, 1.08, 2.2, 2.16, 0.96, 1.03, 0.0, 1.05, 1.99, 2.95, 3.48, 4.19, -12.54, -12.54, -12.54, -12.27, -12.27, -12.09, -12.09, -11.8, -11.8, -11.8, -11.87, -11.87, -11.87, -11.87, -11.87, -11.58, -11.92, -11.92, -11.03, -11.03, -10.75, -10.43, -10.43, -10.72, -10.4, -10.12, -9.8, -9.5, -9.19, -8.58, -8.58, -8.24, -7.6, -6.96, -6.98, -6.98, -6.35, -6.08, -5.72, -5.06, -4.66, -3.81, -2.96, -1.75, -1.16, -2.22, -1.61, 1.26, 4.44, 5.33, 5.24, 5.7, 5.57, 6.47, 7.06, 7.06, 7.06, 7.13, 7.51, 7.97, 7.87, 8.17, 9.6, 7.44, 7.15, 7.81, 8.18, 7.15, 6.73, 6.32, 6.32, 6.58, 4.9, 5.73, 5.67, 3.34, 0.8, -0.86, -1.44, -1.48, -1.45, -2.28, -3.15, -3.2, -2.29, -0.81, 0.0, 1.08, 1.99, 0.96, 0.89, 0.89, 1.03, 2.16, 1.99, 2.68, 3.16, 3.48, -12.16, -12.16, -12.16, -11.9, -11.72, -11.72, -11.72, -11.8, -11.8, -11.8, -11.52, -11.87, -11.87, -11.87, -11.87, -11.58, -11.58, -11.58, -11.33, -11.03, -11.03, -10.75, -10.43, -10.72, -10.4, -10.12, -9.8, -9.5, -9.19, -8.87, -8.58, -8.24, -8.24, -7.6, -6.7, -6.34, -6.35, -6.35, -5.98, -5.7, -5.06, -4.44, -3.4, -1.73, -0.94, -1.05, -1.11, 1.61, 4.4, 5.09, 5.09, 5.09, 5.57, 6.3, 6.79, 7.4, 7.4, 7.51, 7.97, 7.97, 7.87, 8.17, 6.6, 8.54, 7.81, 8.54, 7.15, 7.15, 6.73, 6.32, 5.89, 4.96, 5.0, 6.0, 8.11, 7.23, 4.06, 0.82, -0.85, -1.55, -0.83, 0.0, 0.0, 0.0, 0.0, 0.88, 1.83, 1.84, 0.89, 0.95, 0.95, 0.95, 0.89, 0.96, 1.05, 2.2, 2.23, 3.16, -12.16, -12.16, -12.16, -11.72, -11.72, -11.72, -11.72, -11.44, -11.8, -11.8, -11.8, -11.52, -11.87, -11.87, -11.87, -11.87, -11.87, -11.58, -11.33, -11.03, -11.03, -10.75, -10.43, -10.72, -10.12, -9.8, -9.8, -9.5, -9.5, -8.87, -8.87, -8.24, -7.96, -7.6, -6.96, -6.31, -6.33, -6.34, -6.08, -5.7, -5.06, -4.66, -4.03, -2.92, -1.73, -0.85, 0.0, 2.2, 3.79, 4.07, 4.55, 4.55, 5.31, 6.3, 6.79, 7.21, 7.26, 7.87, 7.97, 7.97, 7.87, 7.87, 10.05, 9.04, 9.04, 8.54, 7.15, 7.21, 6.32, 6.18, 5.21, 5.21, 4.05, 5.0, 6.51, 8.64, 8.18, 5.86, 3.45, 3.0, 3.47, 3.33, 3.9, 4.16, 3.79, 4.03, 3.09, 2.4, 1.84, 0.94, 0.89, 0.89, 0.95, 0.96, 1.05, 1.08, 2.48, 2.48, -12.16, -12.16, -12.16, -11.99, -11.72, -11.72, -11.72, -11.44, -11.44, -11.8, -11.8, -11.52, -11.52, -11.52, -11.52, -11.52, -11.28, -11.28, -11.33, -11.03, -11.03, -10.75, -10.43, -10.4, -10.12, -9.8, -9.8, -9.5, -9.5, -9.5, -8.87, -8.24, -7.96, -7.6, -6.96, -6.96, -6.31, -6.33, -6.34, -5.7, -5.32, -4.66, -4.0, -3.37, -2.23, -1.09, 0.56, 2.14, 2.82, 3.22, 3.49, 4.29, 5.08, 5.6, 6.51, 6.6, 7.69, 7.74, 7.87, 7.87, 7.87, 7.84, 7.26, 9.04, 8.63, 7.81, 7.21, 6.64, 6.32, 5.76, 5.21, 4.34, 4.05, 3.49, 5.0, 6.3, 7.23, 8.16, 6.73, 5.93, 5.86, 5.86, 5.3, 5.41, 4.6, 4.25, 3.36, 2.47, 1.67, 0.89, 0.84, 0.0, 0.83, 1.03, 2.48, 2.23, 2.23, 2.23, -11.99, -11.99, -11.99, -11.99, -11.72, -11.72, -11.72, -11.72, -11.44, -11.23, -11.58, -11.28, -11.28, -11.28, -11.28, -11.28, -11.28, -11.28, -11.33, -11.33, -11.03, -10.43, -10.72, -10.12, -9.8, -9.8, -9.5, -9.5, -9.5, -9.5, -8.87, -8.24, -7.96, -7.6, -7.6, -7.33, -6.94, -6.96, -6.33, -5.7, -5.32, -4.66, -4.0, -3.56, -2.89, -1.61, 0.0, 0.56, 1.8, 2.36, 3.22, 4.11, 4.65, 5.37, 6.1, 6.51, 7.09, 7.69, 7.87, 7.87, 7.74, 7.26, 7.26, 9.54, 8.63, 8.18, 6.95, 6.95, 5.89, 5.76, 4.96, 4.34, 4.34, 4.4, 3.36, 4.13, 4.98, 6.54, 7.6, 7.53, 6.6, 6.48, 5.8, 4.48, 3.07, 2.15, 1.62, 0.85, 0.89, 0.0, 0.0, 0.0, 0.95, 1.05, 2.0, 1.27, 1.27, 1.27, -11.62, -11.62, -11.62, -11.62, -11.72, -11.72, -11.72, -11.52, -11.23, -11.23, -11.23, -10.94, -11.28, -11.28, -11.28, -11.28, -11.28, -11.28, -10.99, -11.33, -10.72, -10.72, -10.12, -10.12, -9.8, -9.8, -9.5, -9.5, -9.5, -8.87, -8.87, -8.24, -8.24, -7.6, -7.87, -7.59, -7.33, -6.94, -6.31, -5.69, -5.06, -4.66, -4.0, -3.35, -2.89, -1.71, -0.55, 0.0, 1.12, 1.67, 2.82, 3.49, 4.71, 5.29, 5.75, 6.28, 6.8, 7.69, 7.74, 7.74, 7.69, 7.26, 7.26, 7.21, 8.93, 7.56, 6.64, 6.32, 6.18, 6.18, 5.46, 5.1, 4.34, 4.2, 4.4, 4.44, 4.33, 4.87, 5.79, 7.32, 7.32, 6.6, 5.02, 3.73, 2.19, 0.73, 0.0, 0.0, 0.0, 0.0, 0.0, 0.0, 1.05, 1.19, 1.08, 0.0, 0.0, 0.0, -11.62, -11.62, -11.62, -11.62, -11.62, -11.35, -11.16, -11.16, -11.23, -11.23, -11.23, -10.94, -10.94, -10.94, -10.94, -11.28, -11.28, -11.28, -10.99, -10.99, -10.72, -10.4, -10.12, -10.12, -9.8, -9.5, -9.5, -9.5, -9.19, -8.87, -8.87, -8.24, -7.96, -8.23, -8.23, -7.96, -7.59, -7.22, -6.31, -5.69, -5.29, -4.42, -4.0, -3.52, -2.86, -2.37, -1.16, 0.0, 0.57, 1.8, 2.36, 3.22, 4.12, 5.01, 5.49, 6.28, 6.8, 7.51, 7.74, 7.69, 7.26, 7.26, 7.26, 7.26, 7.2, 7.56, 6.64, 6.01, 6.01, 5.89, 5.36, 5.36, 4.96, 4.2, 4.4, 3.51, 3.42, 4.1, 4.98, 5.73, 6.47, 6.35, 4.16, 2.87, 1.54, 0.0, -0.75, -1.47, -1.84, -1.4, 0.0, 0.0, 0.0, 0.0, 0.0, 0.0, 0.0, 0.0, -11.62, -11.62, -11.62, -11.62, -11.62, -11.44, -11.16, -11.16, -10.88, -11.23, -11.23, -11.23, -10.94, -10.94, -10.94, -10.94, -11.28, -11.28, -11.28, -10.72, -10.4, -10.12, -10.12, -10.12, -9.8, -9.5, -9.5, -9.19, -8.87, -8.87, -8.87, -8.59, -8.59, -8.87, -8.23, -8.23, -7.87, -7.33, -6.97, -5.92, -5.04, -4.63, -3.97, -3.52, -2.86, -2.21, -1.16, -0.55, 0.0, 1.12, 1.8, 3.04, 3.84, 4.74, 5.86, 6.03, 6.8, 7.09, 7.69, 7.26, 7.01, 7.21, 7.21, 7.26, 7.31, 8.18, 7.44, 7.44, 6.64, 6.32, 5.89, 5.36, 4.56, 3.49, 3.36, 3.51, 3.53, 4.21, 5.11, 5.8, 5.73, 5.67, 4.81, 2.97, 0.73, -0.74, -2.15, -2.97, -3.63, -1.98, -1.05, 0.0, 0.0, 0.0, 0.0, 0.0, 0.0, 0.0, -11.62, -11.62, -11.62, -11.07, -11.07, -11.07, -11.16, -11.16, -10.88, -10.88, -10.88, -11.23, -10.94, -10.69, -10.69, -10.69, -10.69, -10.69, -10.69, -10.69, -10.69, -10.12, -10.12, -10.12, -9.5, -9.5, -9.19, -8.87, -8.87, -8.87, -8.59, -8.87, -8.59, -8.59, -8.87, -8.23, -8.24, -7.61, -6.33, -5.69, -5.26, -4.6, -4.16, -3.97, -3.01, -2.21, -1.71, -0.55, 0.0, 0.61, 1.65, 2.32, 3.47, 4.12, 5.35, 5.59, 6.41, 7.01, 7.26, 7.01, 7.01, 6.79, 6.79, 7.21, 7.09, 8.93, 8.54, 8.18, 7.21, 5.82, 5.36, 4.34, 3.81, 3.49, 3.65, 3.36, 4.44, 5.2, 5.93, 5.93, 5.67, 5.91, 5.62, 3.66, 0.73, -0.73, -2.97, -3.8, -4.01, -2.95, -1.41, 0.0, 0.0, 0.0, 0.0, 0.0, 0.0, 0.0, -11.34, -11.34, -11.07, -11.07, -11.07, -11.07, -10.8, -11.16, -11.16, -10.88, -10.65, -10.65, -10.65, -10.69, -10.69, -10.69, -10.69, -10.69, -10.69, -10.69, -10.69, -10.12, -10.12, -9.8, -9.5, -9.19, -9.19, -8.87, -8.87, -8.87, -9.21, -9.21, -9.21, -9.21, -8.87, -8.59, -7.96, -6.97, -6.33, -5.69, -5.69, -5.04, -4.4, -3.97, -3.32, -2.86, -1.69, -1.16, 0.0, 0.56, 1.2, 2.14, 2.8, 4.12, 5.01, 5.35, 6.03, 7.01, 6.6, 6.6, 6.51, 6.72, 6.3, 6.94, 6.79, 8.17, 8.4, 7.81, 7.06, 6.32, 5.36, 4.5, 3.63, 3.32, 3.49, 4.4, 5.29, 5.76, 5.86, 5.93, 4.93, 5.11, 5.86, 5.15, 2.21, 0.88, -1.98, -3.58, -3.58, -2.98, -2.21, 0.0, 0.0, 0.0, 0.0, 0.0, 0.0, 0.0, -11.34, -10.96, -10.7, -11.07, -11.07, -11.07, -10.8, -10.8, -10.94, -10.65, -10.65, -10.65, -10.65, -10.36, -10.36, -10.69, -10.69, -10.69, -10.36, -10.36, -10.36, -10.12, -10.12, -9.8, -9.5, -9.19, -9.19, -9.19, -9.21, -9.5, -9.5, -9.5, -9.5, -9.21, -8.87, -8.24, -7.61, -6.97, -6.61, -5.95, -5.69, -5.04, -4.6, -4.16, -3.49, -2.86, -2.21, -1.16, -0.55, 0.0, 1.1, 1.76, 2.77, 4.12, 4.45, 5.35, 5.86, 6.28, 6.51, 6.51, 6.1, 6.3, 6.3, 6.47, 6.47, 7.76, 7.82, 8.8, 8.43, 7.41, 7.06, 5.36, 4.5, 3.45, 4.34, 5.21, 5.06, 5.9, 5.14, 5.2, 5.06, 4.33, 4.21, 4.1, 2.83, 2.0, -0.0, -2.24, -2.4, -2.8, -2.8, -1.9, 0.0, 0.0, 0.0, 0.0, 0.0, 0.0, -10.96, -10.96, -10.7, -10.51, -10.51, -10.51, -10.87, -10.59, -10.59, -10.3, -10.3, -10.65, -10.65, -10.36, -10.36, -10.36, -10.36, -10.36, -10.36, -10.09, -10.09, -10.09, -9.8, -9.8, -9.5, -9.5, -9.5, -9.21, -9.5, -9.5, -9.84, -9.84, -9.5, -9.5, -8.59, -7.96, -7.61, -6.71, -6.61, -6.08, -5.69, -5.26, -5.04, -4.63, -3.49, -2.83, -2.33, -1.14, -0.58, 0.0, 0.59, 1.63, 2.29, 3.72, 4.12, 4.74, 5.86, 6.28, 6.1, 6.0, 6.0, 5.81, 5.81, 5.99, 5.99, 5.81, 7.53, 8.17, 8.4, 8.18, 7.76, 6.95, 5.89, 5.53, 4.5, 5.36, 6.04, 5.06, 4.25, 4.13, 4.17, 3.42, 3.32, 2.45, 3.13, 0.88, -0.0, 0.0, -1.9, -2.21, -2.4, -2.4, -2.53, -1.27, -1.41, -1.41, -1.41, -1.41, -10.79, -10.79, -10.51, -10.51, -10.51, -10.51, -10.51, -10.23, -10.59, -10.59, -10.3, -10.3, -10.65, -10.36, -10.36, -10.36, -10.36, -10.09, -10.09, -10.09, -10.09, -10.09, -9.8, -9.8, -9.8, -9.82, -9.82, -10.13, -9.84, -9.84, -9.84, -9.5, -9.5, -8.87, -8.24, -7.61, -7.33, -6.71, -6.33, -6.33, -5.69, -5.26, -5.04, -4.63, -3.97, -3.32, -2.33, -1.69, -0.54, 0.0, 0.0, 1.1, 1.76, 3.45, 4.12, 4.74, 5.29, 5.75, 5.75, 5.37, 5.6, 5.81, 5.31, 5.31, 5.51, 5.09, 6.94, 7.12, 7.2, 7.06, 7.06, 6.95, 6.95, 7.06, 6.01, 5.89, 5.21, 4.4, 3.36, 3.51, 3.39, 3.29, 3.19, 1.75, 2.24, -0.0, -0.0, -2.24, -1.9, -1.4, 0.0, -1.58, -2.21, -1.6, -1.8, -1.6, -1.6, -1.6, -10.41, -10.41, -10.51, -10.51, -10.51, -10.51, -10.51, -10.23, -10.23, -10.59, -10.3, -10.3, -10.3, -10.39, -10.09, -10.09, -10.09, -10.09, -10.09, -10.09, -10.09, -10.09, -9.8, -10.12, -9.82, -10.13, -10.13, -9.84, -9.84, -9.84, -9.84, -9.5, -8.87, -8.58, -8.24, -7.61, -6.97, -6.71, -6.33, -6.33, -5.92, -5.69, -5.04, -4.63, -3.97, -3.32, -2.33, -1.69, -1.14, -0.58, 0.0, 0.59, 2.29, 3.0, 3.72, 4.74, 5.29, 5.58, 5.21, 5.21, 5.08, 5.31, 5.31, 4.9, 4.9, 4.6, 4.3, 4.11, 6.18, 6.45, 6.32, 6.18, 6.18, 6.18, 6.18, 5.36, 4.96, 4.2, 3.65, 3.65, 3.36, 3.39, 3.32, 1.75, -0.0, -0.0, -1.13, -1.9, -2.24, 0.0, 0.0, 0.0, 0.0, 0.0, 0.0, 0.0, 0.0, 0.0, -10.15, -10.15, -10.15, -10.15, -10.15, -9.94, -9.94, -10.3, -10.01, -10.23, -10.3, -10.06, -10.06, -10.06, -9.77, -9.77, -9.77, -9.77, -9.77, -10.09, -10.09, -10.09, -9.8, -10.12, -10.43, -10.43, -10.13, -10.13, -9.84, -9.84, -9.5, -8.87, -8.58, -8.24, -7.61, -7.33, -6.97, -6.97, -6.58, -6.33, -5.92, -5.69, -5.04, -4.63, -3.97, -3.32, -2.86, -2.33, -1.14, -0.54, 0.0, 0.59, 1.76, 2.32, 3.22, 4.12, 4.94, 5.21, 5.21, 4.65, 4.93, 4.55, 4.8, 4.8, 4.4, 4.4, 4.11, 3.87, 6.21, 5.69, 5.36, 5.36, 5.89, 6.18, 5.36, 4.34, 4.34, 3.49, 3.49, 3.49, 3.49, 4.07, 4.33, 2.69, -2.21, -0.0, -0.0, -0.0, -1.58, 0.0, 0.0, 0.0, 0.0, 0.0, 0.0, 0.0, 0.0, 0.0, -10.15, -10.15, -9.94, -9.94, -9.94, -9.94, -9.94, -9.94, -10.01, -10.01, -10.06, -10.06, -10.06, -10.06, -10.06, -9.77, -9.77, -9.77, -9.77, -10.09, -10.09, -9.8, -10.12, -10.43, -10.75, -10.75, -10.45, -9.84, -9.84, -9.5, -8.87, -8.87, -7.96, -7.61, -7.33, -7.33, -6.97, -6.97, -6.58, -6.31, -5.92, -5.69, -5.29, -4.63, -3.97, -3.32, -3.01, -2.33, -1.69, -0.54, 0.0, 0.0, 1.76, 2.14, 2.8, 4.12, 4.71, 4.37, 4.37, 4.65, 4.29, 4.55, 4.8, 4.4, 4.27, 4.0, 4.11, 4.3, 4.4, 5.69, 5.53, 6.32, 6.32, 5.36, 4.96, 4.34, 2.69, 2.83, 2.57, 3.49, 3.49, 3.51, 3.29, 2.59, -2.21, -1.14, -0.0, -0.0, -1.2, -1.58, 0.0, 0.0, 0.0, 0.0, 0.0, 0.0, 0.0, 0.0, -10.23, -10.23, -9.94, -9.94, -9.94, -9.94, -9.94, -9.94, -10.01, -10.01, -10.01, -9.72, -10.06, -10.06, -10.06, -10.06, -9.77, -9.77, -9.77, -10.09, -9.8, -10.12, -10.12, -10.43, -10.75, -10.75, -10.45, -10.13, -9.5, -9.21, -8.87, -8.24, -8.24, -7.61, -7.33, -6.97, -6.97, -6.97, -6.7, -6.31, -5.92, -5.69, -5.29, -4.63, -3.97, -3.32, -3.01, -2.33, -1.69, -1.07, -0.58, 0.56, 1.2, 1.65, 2.8, 3.83, 4.11, 4.11, 4.11, 4.07, 4.07, 4.0, 4.0, 4.0, 3.43, 3.43, 3.88, 4.11, 4.27, 5.49, 6.11, 6.45, 6.32, 5.89, 5.36, 4.74, 3.8, 2.69, 2.69, 3.45, 3.49, 3.36, 2.6, 1.7, 0.0, -2.23, -0.81, -1.13, -2.21, -2.4, -2.24, -2.24, -1.2, 0.0, 0.0, 0.0, 0.0, 0.0, -9.86, -9.86, -9.86, -9.59, -9.94, -9.94, -9.94, -9.94, -9.66, -9.66, -10.01, -9.72, -9.72, -9.72, -9.72, -10.06, -9.77, -9.77, -10.09, -9.8, -10.12, -10.12, -10.72, -10.43, -10.43, -10.75, -10.13, -10.13, -9.21, -8.87, -8.58, -7.96, -7.61, -7.61, -7.33, -6.97, -6.97, -6.97, -6.7, -6.31, -5.92, -5.69, -5.29, -4.63, -3.97, -3.49, -2.83, -2.33, -1.69, -1.07, -0.58, 0.0, 0.56, 1.12, 2.36, 3.49, 3.79, 3.49, 3.49, 3.49, 3.48, 3.78, 3.78, 3.43, 3.43, 3.43, 3.72, 4.11, 4.11, 6.0, 6.6, 6.11, 6.01, 6.32, 5.36, 5.36, 4.5, 3.6, 2.83, 3.45, 2.57, 2.59, 1.63, 0.86, 0.0, -2.48, -2.95, -2.68, -2.53, -3.39, -3.58, -3.13, -2.21, -1.6, -2.53, -2.21, -2.21, -2.21, -9.86, -9.86, -9.86, -9.59, -9.59, -9.59, -9.59, -9.71, -9.42, -9.42, -9.42, -9.13, -9.46, -9.46, -9.46, -10.06, -9.77, -10.09, -10.09, -10.12, -10.12, -10.4, -10.43, -10.43, -10.43, -10.43, -10.13, -9.82, -9.21, -8.87, -8.58, -7.96, -7.61, -7.61, -6.97, -6.97, -6.97, -6.97, -6.7, -6.58, -5.92, -5.69, -5.29, -4.63, -3.97, -3.97, -3.32, -2.86, -2.21, -1.14, -0.58, 0.0, 0.56, 1.12, 2.36, 2.84, 3.49, 3.49, 2.84, 3.12, 3.15, 2.86, 2.86, 2.86, 3.16, 3.16, 3.43, 3.72, 3.87, 3.87, 3.43, 4.87, 5.24, 5.53, 5.1, 4.74, 3.63, 3.45, 2.69, 2.69, 2.57, 1.76, 0.82, 0.0, 0.0, -0.93, -3.2, -3.16, -3.16, -3.6, -3.9, -3.58, -3.39, -2.84, -2.53, -2.53, -2.53, -2.53, -9.86, -9.86, -9.86, -9.59, -9.37, -9.37, -9.37, -9.37, -9.37, -9.08, -9.42, -9.42, -9.46, -9.46, -9.46, -9.77, -9.77, -10.09, -9.8, -10.12, -10.12, -10.72, -10.43, -10.43, -10.43, -10.43, -9.82, -9.21, -9.5, -8.87, -8.24, -8.24, -7.61, -7.61, -7.33, -6.97, -6.97, -6.97, -6.97, -6.33, -5.92, -5.69, -5.29, -4.63, -4.42, -3.97, -3.32, -2.86, -2.33, -1.69, -1.16, 0.0, 0.0, 0.57, 1.67, 2.84, 2.86, 2.84, 2.84, 2.84, 2.44, 2.22, 2.48, 2.48, 2.48, 2.86, 3.16, 3.43, 3.6, 3.07, 3.14, 4.74, 5.37, 4.96, 3.6, 3.63, 2.83, 2.83, 2.69, 1.75, 1.84, 0.82, 0.82, 0.0, 0.0, 0.0, -0.85, -2.48, -3.39, -4.0, -4.34, -3.9, -4.02, -3.39, -2.98, -2.98, -2.98, -2.98, -9.5, -9.5, -9.3, -9.66, -9.37, -9.02, -9.02, -9.02, -9.37, -9.08, -9.08, -9.42, -9.13, -9.46, -9.48, -9.77, -10.09, -10.09, -10.12, -10.12, -10.12, -10.43, -10.43, -10.43, -10.72, -10.12, -10.12, -9.5, -9.19, -8.58, -7.96, -8.24, -7.61, -7.61, -7.33, -6.97, -6.97, -6.97, -6.97, -6.33, -5.69, -5.69, -5.29, -4.63, -4.42, -3.97, -3.32, -2.86, -2.33, -1.69, -0.55, 0.0, 0.0, 0.57, 1.67, 2.4, 2.2, 2.4, 2.18, 2.18, 2.4, 2.2, 2.44, 2.22, 2.22, 2.22, 2.86, 3.16, 2.84, 3.14, 3.14, 3.48, 2.84, 2.83, 2.54, 2.69, 2.57, 2.57, 1.75, 1.75, 0.85, 0.82, 0.82, 0.0, 0.83, 0.83, 0.0, 0.0, -1.03, -2.84, -4.02, -4.47, -4.47, -4.47, -4.38, -4.4, -4.4, -4.4, -9.5, -9.5, -9.3, -9.66, -9.37, -9.02, -9.02, -9.02, -9.37, -9.08, -9.08, -9.42, -9.13, -9.46, -9.48, -9.77, -10.09, -10.09, -10.12, -10.12, -10.12, -10.43, -10.43, -10.43, -10.72, -10.12, -10.12, -9.5, -9.19, -8.58, -7.96, -8.24, -7.61, -7.61, -7.33, -6.97, -6.97, -6.97, -6.97, -6.33, -5.69, -5.69, -5.29, -4.63, -4.42, -3.97, -3.32, -2.86, -2.33, -1.69, -0.55, 0.0, 0.0, 0.57, 1.67, 2.4, 2.2, 2.4, 2.18, 2.18, 2.4, 2.2, 2.44, 2.22, 2.22, 2.22, 2.86, 3.16, 2.84, 3.14, 3.14, 3.48, 2.84, 2.83, 2.54, 2.69, 2.57, 2.57, 1.75, 1.75, 0.85, 0.82, 0.82, 0.83, 0.8, 1.65, 1.71, 0.86, 0.0, 0.0, 0.0, -1.3, -3.72, -4.4, -4.4, -4.4, -4.4, -4.4]}]